Logo
 


Wetterdaten - Sonntag, 16.06.2019 - Rheinberg-Annaberg     25 m ber NN private Wetterstation Rheinberg/Angaben ohne Gewhr!
Wetterdaten: aktuell Sonntag, 16.06.2019 20:35
Datum Zeit Temp. A. Feuchte A. Luftdruck Regen Wind Richtung Richtung Sonnenschein ET UV Solar Taupunkt Windchill Windben Empfang
16.06.2019 20:35 22,0 C 60 % 1020,1 hPa 0,0 l/m 3,3 km/h SW 233 0 min 0,000 mm 0,0 UV-I 33 W/m 13,9 C 22,0 C 5,7 km/h 100,00 %
16.06.2019 20:34 22,0 C 60 % 1020,1 hPa 0,0 l/m 1,5 km/h SW 233 0 min 0,000 mm 0,0 UV-I 34 W/m 13,9 C 22,0 C 3,8 km/h 100,00 %
16.06.2019 20:33 22,1 C 60 % 1020,1 hPa 0,0 l/m 0,4 km/h SW 233 0 min 0,000 mm 0,0 UV-I 35 W/m 14,0 C 22,1 C 1,9 km/h 95,65 %
16.06.2019 20:32 22,1 C 59 % 1020,1 hPa 0,0 l/m 0,3 km/h SW 233 0 min 0,000 mm 0,0 UV-I 34 W/m 13,7 C 22,1 C 1,9 km/h 100,00 %
16.06.2019 20:31 22,1 C 59 % 1020,1 hPa 0,0 l/m 0,7 km/h SW 233 0 min 0,000 mm 0,0 UV-I 34 W/m 13,7 C 22,1 C 3,8 km/h 95,65 %
16.06.2019 20:30 22,1 C 59 % 1020,1 hPa 0,0 l/m 3,3 km/h SW 233 0 min 0,000 mm 0,0 UV-I 38 W/m 13,7 C 22,1 C 5,7 km/h 100,00 %
16.06.2019 20:29 22,2 C 59 % 1020,1 hPa 0,0 l/m 3,3 km/h SW 233 0 min 0,000 mm 0,0 UV-I 39 W/m 13,8 C 22,2 C 5,7 km/h 100,00 %
16.06.2019 20:28 22,2 C 59 % 1020,1 hPa 0,0 l/m 4,9 km/h SW 233 0 min 0,000 mm 0,0 UV-I 43 W/m 13,8 C 22,2 C 7,7 km/h 91,67 %
16.06.2019 20:27 22,2 C 58 % 1020,1 hPa 0,0 l/m 2,4 km/h W-SW 244 0 min 0,000 mm 0,0 UV-I 52 W/m 13,5 C 22,2 C 3,8 km/h 100,00 %
16.06.2019 20:26 22,3 C 58 % 1020,1 hPa 0,0 l/m 2,9 km/h W-SW 244 0 min 0,000 mm 0,0 UV-I 48 W/m 13,6 C 22,3 C 7,7 km/h 100,00 %
16.06.2019 20:25 22,3 C 58 % 1020,1 hPa 0,0 l/m 1,7 km/h W-SW 244 0 min 0,000 mm 0,0 UV-I 38 W/m 13,6 C 22,3 C 5,7 km/h 95,65 %
16.06.2019 20:24 22,3 C 58 % 1020,1 hPa 0,0 l/m 0,6 km/h W-SW 244 0 min 0,000 mm 0,0 UV-I 35 W/m 13,6 C 22,3 C 1,9 km/h 100,00 %
16.06.2019 20:23 22,3 C 57 % 1020,1 hPa 0,0 l/m 1,0 km/h W-SW 244 0 min 0,000 mm 0,0 UV-I 35 W/m 13,4 C 22,3 C 3,8 km/h 95,65 %
16.06.2019 20:22 22,3 C 57 % 1020,1 hPa 0,0 l/m 0,5 km/h W-SW 244 0 min 0,000 mm 0,0 UV-I 37 W/m 13,4 C 22,3 C 1,9 km/h 100,00 %
16.06.2019 20:21 22,3 C 57 % 1020,1 hPa 0,0 l/m 2,7 km/h W-SW 244 0 min 0,000 mm 0,0 UV-I 37 W/m 13,4 C 22,3 C 5,7 km/h 100,00 %
16.06.2019 20:20 22,3 C 57 % 1020,1 hPa 0,0 l/m 3,9 km/h W-SW 243 0 min 0,000 mm 0,0 UV-I 39 W/m 13,4 C 22,3 C 7,7 km/h 95,65 %
16.06.2019 20:19 22,3 C 56 % 1020,1 hPa 0,0 l/m 0,1 km/h W 281 0 min 0,000 mm 0,0 UV-I 40 W/m 13,1 C 22,3 C 1,9 km/h 100,00 %
16.06.2019 20:18 22,3 C 57 % 1020,1 hPa 0,0 l/m 2,4 km/h W-NW 282 0 min 0,000 mm 0,0 UV-I 40 W/m 13,4 C 22,3 C 3,8 km/h 100,00 %
16.06.2019 20:17 22,4 C 57 % 1020,1 hPa 0,0 l/m 4,9 km/h W-NW 302 0 min 0,000 mm 0,0 UV-I 48 W/m 13,5 C 22,4 C 9,6 km/h 100,00 %
16.06.2019 20:16 22,4 C 57 % 1020,1 hPa 0,0 l/m 4,1 km/h W-NW 288 0 min 0,000 mm 0,0 UV-I 56 W/m 13,5 C 22,4 C 9,6 km/h 96,15 %
16.06.2019 20:15 22,4 C 57 % 1020,1 hPa 0,0 l/m 1,5 km/h SW 231 0 min 0,000 mm 0,0 UV-I 46 W/m 13,5 C 22,4 C 3,8 km/h 100,00 %
16.06.2019 20:14 22,4 C 57 % 1020,1 hPa 0,0 l/m 1,1 km/h SW 231 0 min 0,000 mm 0,0 UV-I 39 W/m 13,5 C 22,4 C 1,9 km/h 100,00 %
16.06.2019 20:13 22,4 C 57 % 1020,1 hPa 0,0 l/m 3,4 km/h SW 231 0 min 0,000 mm 0,0 UV-I 39 W/m 13,5 C 22,4 C 7,7 km/h 100,00 %
16.06.2019 20:12 22,4 C 57 % 1020,1 hPa 0,0 l/m 4,9 km/h SW 231 0 min 0,000 mm 0,0 UV-I 39 W/m 13,5 C 22,4 C 7,7 km/h 100,00 %
16.06.2019 20:11 22,4 C 57 % 1020,1 hPa 0,0 l/m 2,5 km/h SW 231 0 min 0,000 mm 0,0 UV-I 39 W/m 13,5 C 22,4 C 5,7 km/h 100,00 %
16.06.2019 20:10 22,4 C 57 % 1020,1 hPa 0,0 l/m 4,4 km/h SW 230 0 min 0,000 mm 0,0 UV-I 40 W/m 13,5 C 22,4 C 7,7 km/h 100,00 %
16.06.2019 20:09 22,4 C 56 % 1020,1 hPa 0,0 l/m 0,3 km/h W 273 0 min 0,000 mm 0,0 UV-I 40 W/m 13,2 C 22,4 C 1,9 km/h 100,00 %
16.06.2019 20:08 22,4 C 56 % 1020,1 hPa 0,0 l/m 0,9 km/h W 273 0 min 0,000 mm 0,0 UV-I 40 W/m 13,2 C 22,4 C 3,8 km/h 100,00 %
16.06.2019 20:07 22,4 C 56 % 1020,2 hPa 0,0 l/m 0,7 km/h W 273 0 min 0,000 mm 0,0 UV-I 40 W/m 13,2 C 22,4 C 1,9 km/h 100,00 %
16.06.2019 20:06 22,4 C 57 % 1020,1 hPa 0,0 l/m 1,9 km/h W 273 0 min 0,000 mm 0,0 UV-I 40 W/m 13,5 C 22,4 C 3,8 km/h 100,00 %
16.06.2019 20:05 22,5 C 57 % 1020,1 hPa 0,0 l/m 1,9 km/h W 277 0 min 0,000 mm 0,0 UV-I 42 W/m 13,5 C 22,5 C 3,8 km/h 100,00 %
16.06.2019 20:04 22,5 C 57 % 1020,1 hPa 0,0 l/m 1,5 km/h SW 230 0 min 0,000 mm 0,0 UV-I 42 W/m 13,5 C 22,5 C 5,7 km/h 100,00 %
16.06.2019 20:03 22,5 C 57 % 1020,1 hPa 0,0 l/m 4,3 km/h SW 230 0 min 0,000 mm 0,0 UV-I 43 W/m 13,5 C 22,5 C 7,7 km/h 100,00 %
16.06.2019 20:02 22,6 C 57 % 1020,1 hPa 0,0 l/m 4,9 km/h SW 236 0 min 0,000 mm 0,0 UV-I 45 W/m 13,6 C 22,6 C 9,6 km/h 100,00 %
16.06.2019 20:01 22,6 C 57 % 1020,1 hPa 0,0 l/m 7,0 km/h S 182 0 min 0,178 mm 0,0 UV-I 46 W/m 13,6 C 22,4 C 13,4 km/h 100,00 %
16.06.2019 20:00 22,6 C 57 % 1020,0 hPa 0,0 l/m 7,0 km/h SW 214 0 min 0,000 mm 0,0 UV-I 47 W/m 13,6 C 22,4 C 9,6 km/h 100,00 %
16.06.2019 19:59 22,7 C 56 % 1020,0 hPa 0,0 l/m 7,2 km/h S-SW 213 0 min 0,000 mm 0,0 UV-I 47 W/m 13,5 C 22,4 C 15,3 km/h 100,00 %
16.06.2019 19:58 22,7 C 56 % 1020,0 hPa 0,0 l/m 2,7 km/h SW 229 0 min 0,000 mm 0,0 UV-I 47 W/m 13,5 C 22,7 C 3,8 km/h 98,88 %
16.06.2019 19:57 22,7 C 56 % 1020,1 hPa 0,0 l/m 3,0 km/h SW 229 0 min 0,000 mm 0,0 UV-I 47 W/m 13,5 C 22,7 C 5,7 km/h 100,00 %
16.06.2019 19:56 22,7 C 56 % 1020,1 hPa 0,0 l/m 2,7 km/h SW 229 0 min 0,000 mm 0,0 UV-I 47 W/m 13,5 C 22,7 C 3,8 km/h 100,00 %
16.06.2019 19:55 22,7 C 56 % 1020,0 hPa 0,0 l/m 0,7 km/h SW 229 0 min 0,000 mm 0,0 UV-I 47 W/m 13,5 C 22,7 C 3,8 km/h 100,00 %
16.06.2019 19:54 22,7 C 55 % 1020,1 hPa 0,0 l/m 0,6 km/h SW 229 0 min 0,000 mm 0,0 UV-I 47 W/m 13,2 C 22,7 C 3,8 km/h 100,00 %
16.06.2019 19:53 22,8 C 56 % 1020,0 hPa 0,0 l/m 4,5 km/h SW 229 0 min 0,000 mm 0,0 UV-I 48 W/m 13,6 C 22,8 C 9,6 km/h 100,00 %
16.06.2019 19:52 22,8 C 56 % 1020,0 hPa 0,0 l/m 4,1 km/h SW 217 0 min 0,000 mm 0,0 UV-I 51 W/m 13,6 C 22,8 C 7,7 km/h 100,00 %
16.06.2019 19:51 22,8 C 55 % 1020,1 hPa 0,0 l/m 3,3 km/h SW 227 0 min 0,000 mm 0,4 UV-I 74 W/m 13,3 C 22,8 C 7,7 km/h 100,00 %
16.06.2019 19:50 22,8 C 55 % 1020,0 hPa 0,0 l/m 5,6 km/h W-SW 240 0 min 0,000 mm 0,5 UV-I 112 W/m 13,3 C 22,8 C 7,7 km/h 93,33 %
16.06.2019 19:49 22,8 C 55 % 1020,1 hPa 0,0 l/m 5,1 km/h SW 231 0 min 0,000 mm 0,5 UV-I 125 W/m 13,3 C 22,8 C 9,6 km/h 100,00 %
16.06.2019 19:48 22,9 C 55 % 1020,0 hPa 0,0 l/m 5,4 km/h SW 221 0 min 0,000 mm 0,5 UV-I 146 W/m 13,4 C 22,9 C 9,6 km/h 100,00 %
16.06.2019 19:47 22,9 C 55 % 1020,0 hPa 0,0 l/m 9,1 km/h SW 215 0 min 0,000 mm 0,6 UV-I 192 W/m 13,4 C 22,1 C 11,5 km/h 100,00 %
16.06.2019 19:46 22,9 C 55 % 1020,0 hPa 0,0 l/m 5,5 km/h SW 215 0 min 0,000 mm 0,6 UV-I 227 W/m 13,4 C 22,9 C 11,5 km/h 100,00 %
16.06.2019 19:45 23,0 C 55 % 1020,0 hPa 0,0 l/m 9,7 km/h S 184 0 min 0,000 mm 0,6 UV-I 242 W/m 13,5 C 22,0 C 13,4 km/h 100,00 %
16.06.2019 19:44 23,0 C 55 % 1020,0 hPa 0,0 l/m 5,4 km/h S-SW 193 0 min 0,000 mm 0,6 UV-I 248 W/m 13,5 C 23,0 C 9,6 km/h 100,00 %
16.06.2019 19:43 23,0 C 55 % 1020,0 hPa 0,0 l/m 3,9 km/h S-SW 210 0 min 0,000 mm 0,6 UV-I 248 W/m 13,5 C 23,0 C 7,7 km/h 100,00 %
16.06.2019 19:42 23,1 C 55 % 1020,0 hPa 0,0 l/m 5,0 km/h S-SW 210 0 min 0,000 mm 0,6 UV-I 250 W/m 13,6 C 23,1 C 7,7 km/h 96,00 %
16.06.2019 19:41 23,1 C 55 % 1020,0 hPa 0,0 l/m 5,4 km/h S-SW 209 0 min 0,000 mm 0,6 UV-I 254 W/m 13,6 C 23,1 C 9,6 km/h 100,00 %
16.06.2019 19:40 23,1 C 55 % 1020,0 hPa 0,0 l/m 7,7 km/h S-SW 211 0 min 0,000 mm 0,7 UV-I 256 W/m 13,6 C 22,7 C 13,4 km/h 100,00 %
16.06.2019 19:39 23,2 C 55 % 1020,0 hPa 0,0 l/m 9,8 km/h S-SW 193 0 min 0,000 mm 0,7 UV-I 257 W/m 13,6 C 22,2 C 15,3 km/h 100,00 %
16.06.2019 19:38 23,2 C 55 % 1020,0 hPa 0,0 l/m 8,6 km/h W 259 0 min 0,000 mm 0,7 UV-I 257 W/m 13,6 C 22,5 C 13,4 km/h 100,00 %
16.06.2019 19:37 23,2 C 55 % 1020,0 hPa 0,0 l/m 7,3 km/h SW 216 0 min 0,000 mm 0,7 UV-I 262 W/m 13,6 C 22,9 C 15,3 km/h 100,00 %
16.06.2019 19:36 23,2 C 55 % 1020,0 hPa 0,0 l/m 4,7 km/h SW 236 0 min 0,000 mm 0,7 UV-I 266 W/m 13,6 C 23,2 C 7,7 km/h 100,00 %
16.06.2019 19:35 23,2 C 55 % 1020,0 hPa 0,0 l/m 9,7 km/h W-SW 237 0 min 0,000 mm 0,7 UV-I 274 W/m 13,6 C 22,3 C 13,4 km/h 100,00 %
16.06.2019 19:34 23,2 C 54 % 1020,0 hPa 0,0 l/m 3,4 km/h S-SW 211 0 min 0,000 mm 0,7 UV-I 277 W/m 13,4 C 23,2 C 5,7 km/h 100,00 %
16.06.2019 19:33 23,2 C 55 % 1020,0 hPa 0,0 l/m 7,5 km/h S-SW 211 0 min 0,000 mm 0,7 UV-I 280 W/m 13,6 C 22,9 C 11,5 km/h 100,00 %
16.06.2019 19:32 23,2 C 55 % 1020,0 hPa 0,0 l/m 8,3 km/h SW 235 0 min 0,000 mm 0,7 UV-I 286 W/m 13,6 C 22,6 C 13,4 km/h 100,00 %
16.06.2019 19:31 23,2 C 54 % 1019,9 hPa 0,0 l/m 9,7 km/h SW 216 1 min 0,000 mm 0,8 UV-I 288 W/m 13,4 C 22,3 C 15,3 km/h 100,00 %
16.06.2019 19:30 23,2 C 54 % 1019,9 hPa 0,0 l/m 3,8 km/h SW 226 1 min 0,000 mm 0,8 UV-I 293 W/m 13,4 C 23,2 C 7,7 km/h 96,43 %
16.06.2019 19:29 23,1 C 55 % 1019,9 hPa 0,0 l/m 2,7 km/h W-NW 294 1 min 0,000 mm 0,8 UV-I 297 W/m 13,6 C 23,1 C 7,7 km/h 100,00 %
16.06.2019 19:28 23,1 C 56 % 1019,9 hPa 0,0 l/m 3,0 km/h S-SW 204 1 min 0,000 mm 0,8 UV-I 300 W/m 13,8 C 23,1 C 5,7 km/h 100,00 %
16.06.2019 19:27 23,1 C 56 % 1019,9 hPa 0,0 l/m 4,3 km/h S-SW 204 1 min 0,000 mm 0,8 UV-I 305 W/m 13,8 C 23,1 C 9,6 km/h 100,00 %
16.06.2019 19:26 23,1 C 56 % 1020,0 hPa 0,0 l/m 3,9 km/h W-SW 239 1 min 0,000 mm 0,8 UV-I 315 W/m 13,8 C 23,1 C 5,7 km/h 100,00 %
16.06.2019 19:25 23,0 C 56 % 1020,0 hPa 0,0 l/m 3,1 km/h W-SW 240 1 min 0,000 mm 0,8 UV-I 308 W/m 13,7 C 23,0 C 5,7 km/h 100,00 %
16.06.2019 19:24 22,9 C 56 % 1020,0 hPa 0,0 l/m 0,7 km/h W-NW 284 1 min 0,000 mm 0,8 UV-I 313 W/m 13,6 C 22,9 C 3,8 km/h 100,00 %
16.06.2019 19:23 22,9 C 55 % 1019,9 hPa 0,0 l/m 0,5 km/h W-NW 284 1 min 0,000 mm 0,8 UV-I 329 W/m 13,4 C 22,9 C 1,9 km/h 95,83 %
16.06.2019 19:22 22,8 C 55 % 1019,9 hPa 0,0 l/m 3,4 km/h W-NW 284 1 min 0,000 mm 0,9 UV-I 338 W/m 13,3 C 22,8 C 5,7 km/h 100,00 %
16.06.2019 19:21 22,8 C 55 % 1019,9 hPa 0,0 l/m 2,8 km/h SW 232 1 min 0,000 mm 0,9 UV-I 343 W/m 13,3 C 22,8 C 5,7 km/h 100,00 %
16.06.2019 19:20 22,8 C 55 % 1019,9 hPa 0,0 l/m 5,4 km/h W-SW 238 1 min 0,000 mm 0,9 UV-I 348 W/m 13,3 C 22,8 C 7,7 km/h 100,00 %
16.06.2019 19:19 22,7 C 55 % 1020,0 hPa 0,0 l/m 5,5 km/h SW 225 1 min 0,000 mm 0,9 UV-I 350 W/m 13,2 C 22,7 C 7,7 km/h 100,00 %
16.06.2019 19:18 22,7 C 56 % 1019,9 hPa 0,0 l/m 5,7 km/h W-SW 240 1 min 0,000 mm 0,9 UV-I 351 W/m 13,5 C 22,7 C 7,7 km/h 100,00 %
16.06.2019 19:17 22,6 C 56 % 1020,0 hPa 0,0 l/m 3,4 km/h W-SW 238 1 min 0,000 mm 0,9 UV-I 352 W/m 13,4 C 22,6 C 7,7 km/h 100,00 %
16.06.2019 19:16 22,6 C 56 % 1020,0 hPa 0,0 l/m 4,1 km/h S 190 1 min 0,000 mm 0,9 UV-I 352 W/m 13,4 C 22,6 C 7,7 km/h 100,00 %
16.06.2019 19:15 22,6 C 55 % 1019,9 hPa 0,0 l/m 3,6 km/h S-SW 192 1 min 0,000 mm 0,9 UV-I 350 W/m 13,1 C 22,6 C 5,7 km/h 100,00 %
16.06.2019 19:14 22,6 C 56 % 1019,9 hPa 0,0 l/m 4,5 km/h S-SW 192 1 min 0,000 mm 0,9 UV-I 353 W/m 13,4 C 22,6 C 7,7 km/h 100,00 %
16.06.2019 19:13 22,7 C 56 % 1019,9 hPa 0,0 l/m 1,9 km/h W-SW 238 1 min 0,000 mm 0,9 UV-I 311 W/m 13,5 C 22,7 C 5,7 km/h 100,00 %
16.06.2019 19:12 22,7 C 55 % 1019,9 hPa 0,0 l/m 4,0 km/h W-SW 241 0 min 0,000 mm 0,9 UV-I 95 W/m 13,2 C 22,7 C 7,7 km/h 100,00 %
16.06.2019 19:11 22,7 C 55 % 1019,9 hPa 0,0 l/m 6,7 km/h W-SW 240 0 min 0,000 mm 0,9 UV-I 93 W/m 13,2 C 22,6 C 11,5 km/h 100,00 %
16.06.2019 19:10 22,7 C 55 % 1019,9 hPa 0,0 l/m 4,7 km/h W-SW 238 0 min 0,000 mm 0,8 UV-I 90 W/m 13,2 C 22,7 C 5,7 km/h 100,00 %
16.06.2019 19:09 22,8 C 55 % 1019,9 hPa 0,0 l/m 7,0 km/h SW 236 1 min 0,000 mm 0,9 UV-I 303 W/m 13,3 C 22,6 C 11,5 km/h 95,65 %
16.06.2019 19:08 22,8 C 54 % 1019,9 hPa 0,0 l/m 7,2 km/h S-SW 196 1 min 0,000 mm 0,9 UV-I 374 W/m 13,0 C 22,5 C 11,5 km/h 100,00 %
16.06.2019 19:07 22,9 C 55 % 1019,9 hPa 0,0 l/m 8,6 km/h S-SW 204 1 min 0,000 mm 1,0 UV-I 380 W/m 13,4 C 22,2 C 17,2 km/h 100,00 %
16.06.2019 19:06 22,9 C 55 % 1019,9 hPa 0,0 l/m 9,1 km/h S-SW 198 1 min 0,000 mm 1,1 UV-I 395 W/m 13,4 C 22,1 C 13,4 km/h 100,00 %
16.06.2019 19:05 22,9 C 55 % 1019,9 hPa 0,0 l/m 7,1 km/h S-SW 194 1 min 0,000 mm 1,0 UV-I 380 W/m 13,4 C 22,7 C 13,4 km/h 100,00 %
16.06.2019 19:04 22,9 C 55 % 1019,9 hPa 0,0 l/m 10,1 km/h S-SW 213 1 min 0,000 mm 1,0 UV-I 380 W/m 13,4 C 21,8 C 13,4 km/h 100,00 %
16.06.2019 19:03 22,9 C 55 % 1019,9 hPa 0,0 l/m 7,2 km/h S-SW 213 1 min 0,000 mm 1,1 UV-I 401 W/m 13,4 C 22,6 C 9,6 km/h 100,00 %
16.06.2019 19:02 22,8 C 55 % 1019,9 hPa 0,0 l/m 4,9 km/h S 180 1 min 0,000 mm 1,1 UV-I 404 W/m 13,3 C 22,8 C 7,7 km/h 100,00 %
16.06.2019 19:01 22,8 C 54 % 1019,9 hPa 0,0 l/m 5,7 km/h S 189 1 min 0,304 mm 1,1 UV-I 399 W/m 13,0 C 22,8 C 11,5 km/h 100,00 %
16.06.2019 19:00 22,9 C 54 % 1019,9 hPa 0,0 l/m 8,9 km/h S 180 1 min 0,000 mm 1,1 UV-I 401 W/m 13,1 C 22,1 C 11,5 km/h 100,00 %
16.06.2019 18:59 23,0 C 55 % 1019,9 hPa 0,0 l/m 6,4 km/h S-SO 160 1 min 0,000 mm 1,1 UV-I 405 W/m 13,5 C 23,0 C 9,6 km/h 100,00 %
16.06.2019 18:58 22,9 C 55 % 1019,9 hPa 0,0 l/m 7,2 km/h S-SW 194 1 min 0,000 mm 1,1 UV-I 412 W/m 13,4 C 22,6 C 9,6 km/h 95,65 %
16.06.2019 18:57 22,9 C 55 % 1019,9 hPa 0,0 l/m 4,6 km/h S-SO 163 1 min 0,000 mm 1,1 UV-I 417 W/m 13,4 C 22,9 C 9,6 km/h 100,00 %
16.06.2019 18:56 22,9 C 54 % 1019,9 hPa 0,0 l/m 4,7 km/h S-SW 194 1 min 0,000 mm 1,1 UV-I 430 W/m 13,1 C 22,9 C 9,6 km/h 100,00 %
16.06.2019 18:55 22,9 C 54 % 1019,9 hPa 0,0 l/m 4,8 km/h SW 219 1 min 0,000 mm 1,1 UV-I 411 W/m 13,1 C 22,9 C 7,7 km/h 100,00 %
16.06.2019 18:54 22,9 C 54 % 1020,0 hPa 0,0 l/m 7,1 km/h S-SW 211 1 min 0,000 mm 1,1 UV-I 376 W/m 13,1 C 22,7 C 13,4 km/h 100,00 %
16.06.2019 18:53 22,9 C 53 % 1020,0 hPa 0,0 l/m 8,5 km/h W-SW 246 0 min 0,000 mm 1,2 UV-I 269 W/m 12,8 C 22,2 C 15,3 km/h 100,00 %
16.06.2019 18:52 23,0 C 54 % 1020,0 hPa 0,0 l/m 8,4 km/h SW 234 0 min 0,000 mm 1,0 UV-I 197 W/m 13,2 C 22,4 C 11,5 km/h 100,00 %
16.06.2019 18:51 23,1 C 53 % 1020,0 hPa 0,0 l/m 7,7 km/h W-SW 238 0 min 0,000 mm 1,1 UV-I 158 W/m 13,0 C 22,7 C 11,5 km/h 100,00 %
16.06.2019 18:50 23,2 C 53 % 1019,9 hPa 0,0 l/m 6,7 km/h SW 221 0 min 0,000 mm 0,9 UV-I 156 W/m 13,1 C 23,1 C 11,5 km/h 95,65 %
16.06.2019 18:49 23,3 C 53 % 1019,9 hPa 0,0 l/m 11,3 km/h SW 223 0 min 0,000 mm 0,9 UV-I 130 W/m 13,2 C 22,0 C 15,3 km/h 100,00 %
16.06.2019 18:48 23,3 C 53 % 1019,9 hPa 0,0 l/m 10,8 km/h W 259 0 min 0,000 mm 1,0 UV-I 183 W/m 13,2 C 22,1 C 17,2 km/h 100,00 %
16.06.2019 18:47 23,4 C 53 % 1020,0 hPa 0,0 l/m 5,9 km/h SW 214 1 min 0,000 mm 1,1 UV-I 336 W/m 13,3 C 23,4 C 13,4 km/h 100,00 %
16.06.2019 18:46 23,3 C 53 % 1020,0 hPa 0,0 l/m 4,5 km/h SW 234 1 min 0,000 mm 1,3 UV-I 361 W/m 13,2 C 23,3 C 9,6 km/h 100,00 %
16.06.2019 18:45 23,4 C 53 % 1019,9 hPa 0,0 l/m 11,4 km/h S-SW 211 1 min 0,000 mm 1,3 UV-I 404 W/m 13,3 C 22,1 C 19,1 km/h 96,30 %
16.06.2019 18:44 23,4 C 53 % 1019,9 hPa 0,0 l/m 4,4 km/h W 265 1 min 0,000 mm 1,3 UV-I 431 W/m 13,3 C 23,4 C 17,2 km/h 100,00 %
16.06.2019 18:43 23,4 C 53 % 1020,0 hPa 0,0 l/m 10,8 km/h S-SW 209 1 min 0,000 mm 1,4 UV-I 434 W/m 13,3 C 22,2 C 21,0 km/h 100,00 %
16.06.2019 18:42 23,4 C 52 % 1019,9 hPa 0,0 l/m 9,1 km/h W-SW 239 1 min 0,000 mm 1,4 UV-I 433 W/m 13,0 C 22,6 C 19,1 km/h 100,00 %
16.06.2019 18:41 23,4 C 53 % 1019,9 hPa 0,0 l/m 7,9 km/h W-SW 241 1 min 0,000 mm 1,4 UV-I 437 W/m 13,3 C 22,9 C 13,4 km/h 100,00 %
16.06.2019 18:40 23,3 C 53 % 1019,9 hPa 0,0 l/m 9,2 km/h S-SW 196 1 min 0,000 mm 1,4 UV-I 443 W/m 13,2 C 22,5 C 15,3 km/h 96,30 %
16.06.2019 18:39 23,3 C 52 % 1019,9 hPa 0,0 l/m 8,9 km/h SW 223 1 min 0,000 mm 1,5 UV-I 451 W/m 12,9 C 22,6 C 11,5 km/h 100,00 %
16.06.2019 18:38 23,3 C 54 % 1019,9 hPa 0,0 l/m 9,9 km/h W-SW 243 1 min 0,000 mm 1,5 UV-I 456 W/m 13,5 C 22,3 C 17,2 km/h 100,00 %
16.06.2019 18:37 23,2 C 54 % 1020,0 hPa 0,0 l/m 3,1 km/h N-NW 336 1 min 0,000 mm 1,5 UV-I 463 W/m 13,4 C 23,2 C 7,7 km/h 100,00 %
16.06.2019 18:36 23,2 C 54 % 1019,9 hPa 0,0 l/m 11,3 km/h W-SW 245 1 min 0,000 mm 1,5 UV-I 467 W/m 13,4 C 21,9 C 21,0 km/h 95,83 %
16.06.2019 18:35 23,1 C 55 % 1019,9 hPa 0,0 l/m 8,2 km/h SW 229 2 min 0,000 mm 1,5 UV-I 468 W/m 13,6 C 22,5 C 17,2 km/h 100,00 %
16.06.2019 18:33 23,1 C 55 % 1019,9 hPa 0,0 l/m 10,9 km/h SW 221 1 min 0,000 mm 1,5 UV-I 469 W/m 13,6 C 21,8 C 17,2 km/h 100,00 %
16.06.2019 18:32 23,1 C 55 % 1019,9 hPa 0,0 l/m 7,9 km/h W-SW 250 1 min 0,000 mm 1,5 UV-I 469 W/m 13,6 C 22,6 C 15,3 km/h 100,00 %
16.06.2019 18:31 23,0 C 55 % 1019,9 hPa 0,0 l/m 11,5 km/h SW 235 1 min 0,000 mm 1,6 UV-I 473 W/m 13,5 C 21,6 C 21,0 km/h 100,00 %
16.06.2019 18:30 22,9 C 56 % 1019,9 hPa 0,0 l/m 13,1 km/h S-SW 211 1 min 0,000 mm 1,6 UV-I 470 W/m 13,6 C 21,1 C 17,2 km/h 100,00 %
16.06.2019 18:29 22,9 C 56 % 1019,9 hPa 0,0 l/m 9,4 km/h S-SW 210 1 min 0,000 mm 1,6 UV-I 469 W/m 13,6 C 22,0 C 11,5 km/h 100,00 %
16.06.2019 18:28 22,9 C 55 % 1019,9 hPa 0,0 l/m 8,4 km/h SW 219 1 min 0,000 mm 1,6 UV-I 468 W/m 13,4 C 22,3 C 11,5 km/h 100,00 %
16.06.2019 18:27 22,9 C 55 % 1019,9 hPa 0,0 l/m 4,8 km/h S 178 1 min 0,000 mm 1,5 UV-I 481 W/m 13,4 C 22,9 C 5,7 km/h 100,00 %
16.06.2019 18:26 22,9 C 56 % 1019,9 hPa 0,0 l/m 11,4 km/h S 187 1 min 0,000 mm 1,5 UV-I 483 W/m 13,6 C 21,5 C 19,1 km/h 100,00 %
16.06.2019 18:25 22,9 C 55 % 1019,9 hPa 0,0 l/m 9,8 km/h SW 215 1 min 0,000 mm 1,7 UV-I 483 W/m 13,4 C 21,9 C 13,4 km/h 100,00 %
16.06.2019 18:24 22,9 C 55 % 1019,9 hPa 0,0 l/m 9,5 km/h S-SW 198 1 min 0,000 mm 1,7 UV-I 482 W/m 13,4 C 22,0 C 17,2 km/h 100,00 %
16.06.2019 18:23 22,9 C 55 % 1019,9 hPa 0,0 l/m 12,6 km/h W-SW 237 1 min 0,000 mm 1,7 UV-I 482 W/m 13,4 C 21,2 C 19,1 km/h 100,00 %
16.06.2019 18:22 22,9 C 55 % 1019,9 hPa 0,0 l/m 13,3 km/h SW 214 1 min 0,000 mm 1,7 UV-I 480 W/m 13,4 C 21,1 C 19,1 km/h 100,00 %
16.06.2019 18:21 23,0 C 54 % 1019,9 hPa 0,0 l/m 11,4 km/h S-SW 193 1 min 0,000 mm 1,7 UV-I 480 W/m 13,2 C 21,6 C 19,1 km/h 100,00 %
16.06.2019 18:20 23,1 C 55 % 1020,0 hPa 0,0 l/m 7,8 km/h S 187 1 min 0,000 mm 1,7 UV-I 486 W/m 13,6 C 22,7 C 11,5 km/h 100,00 %
16.06.2019 18:19 23,1 C 55 % 1020,0 hPa 0,0 l/m 9,6 km/h W-SW 247 1 min 0,000 mm 1,8 UV-I 490 W/m 13,6 C 22,2 C 15,3 km/h 100,00 %
16.06.2019 18:18 23,2 C 54 % 1019,9 hPa 0,0 l/m 8,7 km/h S 189 1 min 0,000 mm 1,8 UV-I 492 W/m 13,4 C 22,5 C 13,4 km/h 100,00 %
16.06.2019 18:17 23,3 C 55 % 1019,9 hPa 0,0 l/m 13,6 km/h S-SW 212 1 min 0,000 mm 1,8 UV-I 493 W/m 13,7 C 21,5 C 24,9 km/h 100,00 %
16.06.2019 18:16 23,3 C 55 % 1019,9 hPa 0,0 l/m 10,8 km/h S-SW 200 1 min 0,000 mm 1,8 UV-I 494 W/m 13,7 C 22,1 C 15,3 km/h 96,15 %
16.06.2019 18:15 23,3 C 54 % 1019,9 hPa 0,0 l/m 3,8 km/h S-SW 207 1 min 0,000 mm 1,8 UV-I 499 W/m 13,5 C 23,3 C 7,7 km/h 100,00 %
16.06.2019 18:14 23,3 C 54 % 1019,9 hPa 0,0 l/m 11,5 km/h SW 215 1 min 0,000 mm 1,9 UV-I 502 W/m 13,5 C 21,9 C 19,1 km/h 96,15 %
16.06.2019 18:13 23,3 C 54 % 1019,9 hPa 0,0 l/m 9,3 km/h W-SW 241 1 min 0,000 mm 1,9 UV-I 503 W/m 13,5 C 22,5 C 19,1 km/h 100,00 %
16.06.2019 18:12 23,2 C 55 % 1019,9 hPa 0,0 l/m 7,3 km/h SW 234 1 min 0,000 mm 1,9 UV-I 504 W/m 13,6 C 22,9 C 13,4 km/h 96,15 %
16.06.2019 18:11 23,2 C 55 % 1019,8 hPa 0,0 l/m 7,7 km/h S-SW 198 1 min 0,000 mm 1,9 UV-I 508 W/m 13,6 C 22,8 C 11,5 km/h 100,00 %
16.06.2019 18:10 23,1 C 56 % 1019,9 hPa 0,0 l/m 15,8 km/h SW 224 1 min 0,000 mm 1,9 UV-I 512 W/m 13,8 C 20,9 C 21,0 km/h 95,65 %
16.06.2019 18:09 23,0 C 56 % 1019,8 hPa 0,0 l/m 7,7 km/h S-SW 204 1 min 0,000 mm 1,9 UV-I 510 W/m 13,7 C 22,6 C 15,3 km/h 100,00 %
16.06.2019 18:08 22,9 C 56 % 1019,9 hPa 0,0 l/m 7,0 km/h SW 227 1 min 0,000 mm 1,9 UV-I 513 W/m 13,6 C 22,7 C 11,5 km/h 100,00 %
16.06.2019 18:07 22,9 C 56 % 1019,8 hPa 0,0 l/m 6,4 km/h SW 225 1 min 0,000 mm 2,0 UV-I 526 W/m 13,6 C 22,9 C 19,1 km/h 100,00 %
16.06.2019 18:06 22,8 C 56 % 1019,8 hPa 0,0 l/m 6,9 km/h S 180 1 min 0,000 mm 2,0 UV-I 530 W/m 13,6 C 22,6 C 9,6 km/h 100,00 %
16.06.2019 18:05 22,8 C 56 % 1019,9 hPa 0,0 l/m 10,2 km/h SW 222 1 min 0,000 mm 2,0 UV-I 532 W/m 13,6 C 21,7 C 15,3 km/h 100,00 %
16.06.2019 18:04 22,8 C 56 % 1019,9 hPa 0,0 l/m 9,9 km/h SW 231 1 min 0,000 mm 2,0 UV-I 538 W/m 13,6 C 21,8 C 17,2 km/h 91,67 %
16.06.2019 18:03 22,8 C 56 % 1019,9 hPa 0,0 l/m 8,2 km/h S-SW 196 1 min 0,000 mm 2,0 UV-I 526 W/m 13,6 C 22,2 C 13,4 km/h 86,96 %
16.06.2019 18:02 22,8 C 56 % 1019,9 hPa 0,0 l/m 10,5 km/h SW 225 1 min 0,000 mm 1,8 UV-I 568 W/m 13,6 C 21,6 C 17,2 km/h 100,00 %
16.06.2019 18:01 22,8 C 56 % 1019,9 hPa 0,0 l/m 6,4 km/h SW 216 1 min 0,000 mm 1,5 UV-I 568 W/m 13,6 C 22,8 C 11,5 km/h 100,00 %
16.06.2019 18:00 22,8 C 56 % 1019,9 hPa 0,0 l/m 8,2 km/h S-SW 208 1 min 0,432 mm 1,4 UV-I 568 W/m 13,6 C 22,2 C 19,1 km/h 100,00 %
16.06.2019 17:59 22,8 C 55 % 1019,9 hPa 0,0 l/m 7,5 km/h W-SW 246 1 min 0,000 mm 2,0 UV-I 568 W/m 13,3 C 22,4 C 11,5 km/h 100,00 %
16.06.2019 17:58 22,9 C 54 % 1019,8 hPa 0,0 l/m 7,9 km/h S 185 0 min 0,000 mm 2,0 UV-I 233 W/m 13,1 C 22,4 C 13,4 km/h 100,00 %
16.06.2019 17:57 23,0 C 55 % 1019,8 hPa 0,0 l/m 7,7 km/h S 184 0 min 0,000 mm 1,5 UV-I 204 W/m 13,5 C 22,6 C 11,5 km/h 100,00 %
16.06.2019 17:56 23,2 C 54 % 1019,9 hPa 0,0 l/m 9,6 km/h SW 235 1 min 0,000 mm 1,6 UV-I 587 W/m 13,4 C 22,3 C 13,4 km/h 100,00 %
16.06.2019 17:55 23,2 C 55 % 1019,9 hPa 0,0 l/m 5,9 km/h S 175 1 min 0,000 mm 1,8 UV-I 587 W/m 13,6 C 23,2 C 11,5 km/h 100,00 %
16.06.2019 17:54 23,3 C 54 % 1019,9 hPa 0,0 l/m 9,5 km/h S 176 1 min 0,000 mm 2,0 UV-I 587 W/m 13,5 C 22,4 C 17,2 km/h 95,83 %
16.06.2019 17:53 23,4 C 53 % 1019,9 hPa 0,0 l/m 19,2 km/h SW 225 1 min 0,000 mm 2,2 UV-I 587 W/m 13,3 C 20,7 C 26,8 km/h 100,00 %
16.06.2019 17:52 23,4 C 54 % 1019,9 hPa 0,0 l/m 12,8 km/h W-SW 248 1 min 0,000 mm 1,7 UV-I 589 W/m 13,6 C 21,8 C 17,2 km/h 95,83 %
16.06.2019 17:51 23,4 C 55 % 1019,9 hPa 0,0 l/m 6,1 km/h S-SW 207 1 min 0,000 mm 2,2 UV-I 592 W/m 13,8 C 23,4 C 11,5 km/h 100,00 %
16.06.2019 17:50 23,3 C 54 % 1019,9 hPa 0,0 l/m 10,9 km/h S-SW 202 1 min 0,000 mm 2,3 UV-I 610 W/m 13,5 C 22,1 C 21,0 km/h 91,67 %
16.06.2019 17:49 23,3 C 54 % 1019,9 hPa 0,0 l/m 9,7 km/h S-SW 192 1 min 0,000 mm 2,3 UV-I 623 W/m 13,5 C 22,4 C 13,4 km/h 100,00 %
16.06.2019 17:48 23,3 C 53 % 1019,9 hPa 0,0 l/m 7,8 km/h SW 234 1 min 0,000 mm 2,4 UV-I 637 W/m 13,2 C 22,9 C 17,2 km/h 95,83 %
16.06.2019 17:47 23,3 C 54 % 1019,9 hPa 0,0 l/m 12,2 km/h W-NW 284 1 min 0,000 mm 2,4 UV-I 645 W/m 13,5 C 21,8 C 17,2 km/h 96,15 %
16.06.2019 17:46 23,3 C 53 % 1020,0 hPa 0,0 l/m 15,5 km/h S-SW 207 1 min 0,000 mm 2,4 UV-I 664 W/m 13,2 C 21,2 C 23,0 km/h 95,83 %
16.06.2019 17:45 23,2 C 55 % 1019,9 hPa 0,0 l/m 8,9 km/h SW 236 1 min 0,000 mm 2,4 UV-I 667 W/m 13,6 C 22,5 C 24,9 km/h 100,00 %
16.06.2019 17:44 23,2 C 55 % 1019,9 hPa 0,0 l/m 6,9 km/h SW 235 1 min 0,000 mm 2,5 UV-I 689 W/m 13,6 C 23,0 C 9,6 km/h 96,88 %
16.06.2019 17:43 23,1 C 55 % 1019,9 hPa 0,0 l/m 10,1 km/h W-SW 240 1 min 0,000 mm 2,6 UV-I 703 W/m 13,6 C 22,0 C 15,3 km/h 95,83 %
16.06.2019 17:42 23,0 C 55 % 1020,0 hPa 0,0 l/m 10,6 km/h SW 231 1 min 0,000 mm 2,6 UV-I 725 W/m 13,5 C 21,8 C 17,2 km/h 100,00 %
16.06.2019 17:41 23,0 C 55 % 1020,0 hPa 0,0 l/m 10,8 km/h SW 234 1 min 0,000 mm 2,6 UV-I 735 W/m 13,5 C 21,8 C 19,1 km/h 96,30 %
16.06.2019 17:40 22,9 C 55 % 1020,0 hPa 0,0 l/m 14,7 km/h SW 226 1 min 0,000 mm 2,6 UV-I 733 W/m 13,4 C 20,8 C 19,1 km/h 96,15 %
16.06.2019 17:39 22,9 C 56 % 1020,0 hPa 0,0 l/m 12,3 km/h SW 214 1 min 0,000 mm 2,6 UV-I 703 W/m 13,6 C 21,3 C 23,0 km/h 100,00 %
16.06.2019 17:38 23,0 C 55 % 1019,9 hPa 0,0 l/m 10,3 km/h SW 215 1 min 0,000 mm 2,6 UV-I 702 W/m 13,5 C 21,9 C 15,3 km/h 96,55 %
16.06.2019 17:37 23,0 C 56 % 1020,0 hPa 0,0 l/m 9,7 km/h SW 220 1 min 0,000 mm 2,5 UV-I 471 W/m 13,7 C 22,0 C 13,4 km/h 100,00 %
16.06.2019 17:36 23,0 C 56 % 1020,0 hPa 0,0 l/m 9,6 km/h SW 219 1 min 0,000 mm 2,1 UV-I 343 W/m 13,7 C 22,1 C 13,4 km/h 95,65 %
16.06.2019 17:35 23,0 C 56 % 1019,9 hPa 0,0 l/m 9,2 km/h S-SW 211 1 min 0,000 mm 1,9 UV-I 607 W/m 13,7 C 22,2 C 15,3 km/h 95,83 %
16.06.2019 17:34 23,0 C 55 % 1019,9 hPa 0,0 l/m 8,1 km/h S-SO 167 1 min 0,000 mm 2,4 UV-I 680 W/m 13,5 C 22,5 C 11,5 km/h 95,65 %
16.06.2019 17:33 23,0 C 55 % 1019,9 hPa 0,0 l/m 10,8 km/h S-SO 165 1 min 0,000 mm 2,6 UV-I 680 W/m 13,5 C 21,8 C 15,3 km/h 100,00 %
16.06.2019 17:32 23,1 C 55 % 1019,9 hPa 0,0 l/m 7,8 km/h S 176 1 min 0,000 mm 2,7 UV-I 654 W/m 13,6 C 22,7 C 11,5 km/h 96,15 %
16.06.2019 17:31 23,1 C 55 % 1020,0 hPa 0,0 l/m 13,8 km/h SW 231 1 min 0,000 mm 2,7 UV-I 636 W/m 13,6 C 21,2 C 21,0 km/h 100,00 %
16.06.2019 17:30 23,2 C 55 % 1019,9 hPa 0,0 l/m 15,3 km/h S-SO 162 1 min 0,000 mm 2,7 UV-I 649 W/m 13,6 C 21,1 C 26,8 km/h 96,15 %
16.06.2019 17:29 23,2 C 55 % 1019,9 hPa 0,0 l/m 8,4 km/h SW 219 1 min 0,000 mm 2,7 UV-I 634 W/m 13,6 C 22,6 C 11,5 km/h 96,30 %
16.06.2019 17:28 23,2 C 55 % 1020,0 hPa 0,0 l/m 8,7 km/h SW 231 1 min 0,000 mm 2,7 UV-I 642 W/m 13,6 C 22,5 C 13,4 km/h 100,00 %
16.06.2019 17:27 23,3 C 56 % 1019,9 hPa 0,0 l/m 6,4 km/h W-SW 242 1 min 0,000 mm 2,7 UV-I 642 W/m 14,0 C 23,3 C 9,6 km/h 96,55 %
16.06.2019 17:26 23,3 C 55 % 1020,0 hPa 0,0 l/m 8,5 km/h S-SW 211 1 min 0,000 mm 2,8 UV-I 646 W/m 13,7 C 22,7 C 21,0 km/h 100,00 %
16.06.2019 17:25 23,4 C 54 % 1020,0 hPa 0,0 l/m 7,7 km/h S-SW 201 1 min 0,000 mm 2,8 UV-I 664 W/m 13,6 C 23,0 C 11,5 km/h 91,67 %
16.06.2019 17:24 23,4 C 54 % 1020,0 hPa 0,0 l/m 8,7 km/h SW 223 1 min 0,000 mm 2,9 UV-I 675 W/m 13,6 C 22,7 C 15,3 km/h 96,30 %
16.06.2019 17:23 23,5 C 55 % 1020,1 hPa 0,0 l/m 11,7 km/h W-SW 243 1 min 0,000 mm 2,9 UV-I 682 W/m 13,9 C 22,1 C 19,1 km/h 96,15 %
16.06.2019 17:22 23,4 C 56 % 1020,0 hPa 0,0 l/m 6,9 km/h SW 219 1 min 0,000 mm 2,9 UV-I 689 W/m 14,1 C 23,3 C 13,4 km/h 95,83 %
16.06.2019 17:21 23,4 C 55 % 1020,0 hPa 0,0 l/m 6,3 km/h SW 219 1 min 0,000 mm 2,9 UV-I 691 W/m 13,8 C 23,4 C 11,5 km/h 100,00 %
16.06.2019 17:20 23,3 C 56 % 1020,1 hPa 0,0 l/m 4,8 km/h W 271 1 min 0,000 mm 3,0 UV-I 691 W/m 14,0 C 23,3 C 9,6 km/h 96,30 %
16.06.2019 17:19 23,3 C 57 % 1020,0 hPa 0,0 l/m 7,9 km/h W-SW 248 1 min 0,000 mm 3,0 UV-I 690 W/m 14,3 C 22,8 C 11,5 km/h 100,00 %
16.06.2019 17:18 23,2 C 57 % 1020,0 hPa 0,0 l/m 7,1 km/h SW 219 1 min 0,000 mm 3,0 UV-I 690 W/m 14,2 C 23,0 C 9,6 km/h 96,30 %
16.06.2019 17:17 23,1 C 57 % 1020,0 hPa 0,0 l/m 9,2 km/h W-SW 249 1 min 0,000 mm 3,0 UV-I 695 W/m 14,1 C 22,3 C 17,2 km/h 96,15 %
16.06.2019 17:16 23,1 C 57 % 1020,0 hPa 0,0 l/m 5,9 km/h S-SW 209 1 min 0,000 mm 3,0 UV-I 714 W/m 14,1 C 23,1 C 9,6 km/h 95,83 %
16.06.2019 17:15 23,1 C 56 % 1020,0 hPa 0,0 l/m 11,5 km/h SW 221 1 min 0,000 mm 3,0 UV-I 718 W/m 13,8 C 21,7 C 21,0 km/h 100,00 %
16.06.2019 17:14 23,1 C 56 % 1020,0 hPa 0,0 l/m 13,0 km/h SW 232 1 min 0,000 mm 3,1 UV-I 734 W/m 13,8 C 21,4 C 17,2 km/h 83,33 %
16.06.2019 17:13 23,1 C 56 % 1020,1 hPa 0,0 l/m 15,5 km/h W-SW 249 1 min 0,000 mm 3,1 UV-I 750 W/m 13,8 C 20,9 C 24,9 km/h 95,12 %
16.06.2019 17:12 23,1 C 56 % 1020,1 hPa 0,0 l/m 10,8 km/h W 261 1 min 0,000 mm 3,1 UV-I 763 W/m 13,8 C 21,9 C 21,0 km/h 100,00 %
16.06.2019 17:11 23,1 C 56 % 1020,1 hPa 0,0 l/m 9,9 km/h SW 233 1 min 0,000 mm 3,1 UV-I 778 W/m 13,8 C 22,1 C 15,3 km/h 95,65 %
16.06.2019 17:10 23,0 C 57 % 1020,1 hPa 0,0 l/m 7,8 km/h SW 215 1 min 0,000 mm 3,2 UV-I 779 W/m 14,0 C 22,6 C 11,5 km/h 100,00 %
16.06.2019 17:09 22,9 C 57 % 1020,1 hPa 0,0 l/m 5,2 km/h SW 218 1 min 0,000 mm 2,5 UV-I 779 W/m 13,9 C 22,9 C 9,6 km/h 91,67 %
16.06.2019 17:08 22,9 C 58 % 1020,1 hPa 0,0 l/m 9,0 km/h S 169 1 min 0,000 mm 2,7 UV-I 779 W/m 14,2 C 22,1 C 13,4 km/h 96,15 %
16.06.2019 17:07 22,8 C 58 % 1020,1 hPa 0,0 l/m 9,8 km/h S-SW 209 1 min 0,000 mm 3,2 UV-I 793 W/m 14,1 C 21,8 C 21,0 km/h 96,30 %
16.06.2019 17:06 22,8 C 58 % 1020,1 hPa 0,0 l/m 9,8 km/h S-SW 200 1 min 0,000 mm 3,2 UV-I 808 W/m 14,1 C 21,8 C 19,1 km/h 95,83 %
16.06.2019 17:05 22,7 C 58 % 1020,1 hPa 0,0 l/m 14,3 km/h S-SW 196 1 min 0,000 mm 2,9 UV-I 842 W/m 14,0 C 20,7 C 21,0 km/h 95,83 %
16.06.2019 17:04 22,6 C 59 % 1020,0 hPa 0,0 l/m 14,8 km/h S 188 1 min 0,000 mm 2,9 UV-I 847 W/m 14,2 C 20,4 C 24,9 km/h 92,31 %
16.06.2019 17:03 22,5 C 59 % 1020,0 hPa 0,0 l/m 8,0 km/h SW 231 1 min 0,000 mm 3,3 UV-I 849 W/m 14,1 C 22,0 C 17,2 km/h 100,00 %
16.06.2019 17:02 22,4 C 59 % 1020,0 hPa 0,0 l/m 6,8 km/h S-SO 153 1 min 0,001 mm 3,3 UV-I 856 W/m 14,0 C 22,3 C 13,4 km/h 99,05 %
16.06.2019 17:01 22,3 C 59 % 1020,0 hPa 0,0 l/m 8,9 km/h S-SO 164 1 min 0,279 mm 3,3 UV-I 859 W/m 13,9 C 21,5 C 15,3 km/h 91,67 %
16.06.2019 17:00 22,3 C 60 % 1020,0 hPa 0,0 l/m 9,0 km/h S-SW 207 1 min 0,000 mm 3,2 UV-I 423 W/m 14,2 C 21,5 C 17,2 km/h 95,65 %
16.06.2019 16:59 22,2 C 60 % 1020,0 hPa 0,0 l/m 5,1 km/h S 177 1 min 0,000 mm 2,1 UV-I 310 W/m 14,1 C 22,2 C 7,7 km/h 96,30 %
16.06.2019 16:58 22,2 C 60 % 1020,0 hPa 0,0 l/m 6,9 km/h S 186 1 min 0,000 mm 2,1 UV-I 352 W/m 14,1 C 22,0 C 13,4 km/h 95,65 %
16.06.2019 16:57 22,2 C 60 % 1020,1 hPa 0,0 l/m 5,6 km/h SW 225 1 min 0,000 mm 2,2 UV-I 388 W/m 14,1 C 22,2 C 9,6 km/h 100,00 %
16.06.2019 16:56 22,2 C 60 % 1020,1 hPa 0,0 l/m 9,2 km/h SW 215 1 min 0,000 mm 2,8 UV-I 533 W/m 14,1 C 21,3 C 11,5 km/h 92,86 %
16.06.2019 16:55 22,1 C 61 % 1020,1 hPa 0,0 l/m 9,3 km/h S 180 1 min 0,000 mm 2,6 UV-I 404 W/m 14,2 C 21,2 C 13,4 km/h 100,00 %
16.06.2019 16:54 22,1 C 61 % 1020,1 hPa 0,0 l/m 3,5 km/h SW 217 1 min 0,000 mm 1,9 UV-I 299 W/m 14,2 C 22,1 C 7,7 km/h 96,15 %
16.06.2019 16:53 22,1 C 61 % 1020,0 hPa 0,0 l/m 9,7 km/h SW 218 0 min 0,000 mm 1,8 UV-I 279 W/m 14,2 C 21,0 C 13,4 km/h 100,00 %
16.06.2019 16:52 22,0 C 61 % 1020,1 hPa 0,0 l/m 10,2 km/h SW 221 0 min 0,000 mm 1,8 UV-I 262 W/m 14,1 C 20,8 C 15,3 km/h 100,00 %
16.06.2019 16:51 21,9 C 61 % 1020,1 hPa 0,0 l/m 9,2 km/h W-SW 246 1 min 0,000 mm 1,8 UV-I 303 W/m 14,0 C 21,0 C 13,4 km/h 95,83 %
16.06.2019 16:50 21,9 C 61 % 1020,0 hPa 0,0 l/m 9,9 km/h S 189 1 min 0,000 mm 2,1 UV-I 371 W/m 14,0 C 20,8 C 13,4 km/h 100,00 %
16.06.2019 16:49 21,9 C 61 % 1020,0 hPa 0,0 l/m 6,4 km/h W-SW 240 1 min 0,000 mm 2,3 UV-I 371 W/m 14,0 C 21,9 C 13,4 km/h 93,33 %
16.06.2019 16:48 21,9 C 61 % 1020,0 hPa 0,0 l/m 5,5 km/h S-SW 207 1 min 0,000 mm 2,2 UV-I 371 W/m 14,0 C 21,9 C 7,7 km/h 100,00 %
16.06.2019 16:47 21,9 C 61 % 1020,1 hPa 0,0 l/m 8,6 km/h S-SW 211 1 min 0,000 mm 2,1 UV-I 338 W/m 14,0 C 21,2 C 13,4 km/h 91,67 %
16.06.2019 16:46 21,9 C 61 % 1020,1 hPa 0,0 l/m 5,5 km/h S-SO 153 1 min 0,000 mm 2,2 UV-I 344 W/m 14,0 C 21,9 C 9,6 km/h 100,00 %
16.06.2019 16:45 22,0 C 60 % 1020,1 hPa 0,0 l/m 7,7 km/h S-SW 197 1 min 0,000 mm 2,3 UV-I 350 W/m 13,9 C 21,6 C 13,4 km/h 95,65 %
16.06.2019 16:44 22,1 C 60 % 1020,0 hPa 0,0 l/m 7,0 km/h S 189 1 min 0,000 mm 2,3 UV-I 354 W/m 14,0 C 21,9 C 17,2 km/h 100,00 %
16.06.2019 16:43 22,1 C 60 % 1020,1 hPa 0,0 l/m 6,9 km/h S 182 1 min 0,000 mm 2,3 UV-I 380 W/m 14,0 C 21,9 C 9,6 km/h 91,30 %
16.06.2019 16:42 22,2 C 60 % 1020,1 hPa 0,0 l/m 8,5 km/h S 170 1 min 0,000 mm 2,5 UV-I 363 W/m 14,1 C 21,5 C 17,2 km/h 96,00 %
16.06.2019 16:41 22,2 C 60 % 1020,1 hPa 0,0 l/m 8,7 km/h S-SO 167 1 min 0,000 mm 2,3 UV-I 573 W/m 14,1 C 21,4 C 15,3 km/h 100,00 %
16.06.2019 16:40 22,2 C 60 % 1020,1 hPa 0,0 l/m 8,7 km/h SW 220 1 min 0,000 mm 2,9 UV-I 587 W/m 14,1 C 21,4 C 11,5 km/h 96,67 %
16.06.2019 16:39 22,1 C 61 % 1020,1 hPa 0,0 l/m 9,6 km/h S-SW 194 1 min 0,000 mm 3,2 UV-I 587 W/m 14,2 C 21,1 C 13,4 km/h 90,91 %
16.06.2019 16:38 22,1 C 61 % 1020,2 hPa 0,0 l/m 8,8 km/h SW 222 1 min 0,000 mm 3,1 UV-I 517 W/m 14,2 C 21,3 C 21,0 km/h 96,30 %
16.06.2019 16:37 21,9 C 61 % 1020,1 hPa 0,0 l/m 7,7 km/h W-SW 241 1 min 0,000 mm 4,0 UV-I 457 W/m 14,0 C 21,4 C 11,5 km/h 100,00 %
16.06.2019 16:36 21,9 C 61 % 1020,1 hPa 0,0 l/m 6,4 km/h SW 229 1 min 0,000 mm 3,0 UV-I 457 W/m 14,0 C 21,9 C 11,5 km/h 100,00 %
16.06.2019 16:35 21,8 C 61 % 1020,2 hPa 0,0 l/m 9,7 km/h SW 230 1 min 0,000 mm 3,2 UV-I 457 W/m 13,9 C 20,7 C 15,3 km/h 100,00 %
16.06.2019 16:34 21,8 C 61 % 1020,2 hPa 0,0 l/m 10,6 km/h W-SW 240 1 min 0,000 mm 2,5 UV-I 457 W/m 13,9 C 20,5 C 17,2 km/h 100,00 %
16.06.2019 16:33 21,8 C 61 % 1020,2 hPa 0,0 l/m 11,9 km/h SW 231 1 min 0,000 mm 2,4 UV-I 430 W/m 13,9 C 20,1 C 21,0 km/h 95,65 %
16.06.2019 16:32 21,8 C 62 % 1020,2 hPa 0,0 l/m 7,5 km/h S-SW 205 1 min 0,000 mm 2,1 UV-I 372 W/m 14,2 C 21,4 C 13,4 km/h 100,00 %
16.06.2019 16:31 21,8 C 62 % 1020,2 hPa 0,0 l/m 3,1 km/h SW 232 1 min 0,000 mm 2,0 UV-I 349 W/m 14,2 C 21,8 C 17,2 km/h 100,00 %
16.06.2019 16:30 21,7 C 62 % 1020,3 hPa 0,0 l/m 3,7 km/h SW 233 1 min 0,000 mm 2,0 UV-I 342 W/m 14,1 C 21,7 C 7,7 km/h 100,00 %
16.06.2019 16:29 21,7 C 61 % 1020,2 hPa 0,0 l/m 8,6 km/h SW 218 1 min 0,000 mm 2,0 UV-I 342 W/m 13,8 C 20,9 C 11,5 km/h 95,83 %
16.06.2019 16:28 21,7 C 61 % 1020,3 hPa 0,0 l/m 9,2 km/h S-SO 161 1 min 0,000 mm 2,0 UV-I 347 W/m 13,8 C 20,8 C 11,5 km/h 100,00 %
16.06.2019 16:27 21,6 C 62 % 1020,2 hPa 0,0 l/m 6,8 km/h SW 225 1 min 0,000 mm 2,1 UV-I 358 W/m 14,0 C 21,5 C 7,7 km/h 100,00 %
16.06.2019 16:26 21,6 C 62 % 1020,3 hPa 0,0 l/m 7,4 km/h SW 234 1 min 0,000 mm 2,1 UV-I 370 W/m 14,0 C 21,2 C 9,6 km/h 100,00 %
16.06.2019 16:25 21,5 C 61 % 1020,2 hPa 0,0 l/m 5,0 km/h SW 229 1 min 0,000 mm 2,4 UV-I 391 W/m 13,7 C 21,5 C 7,7 km/h 100,00 %
16.06.2019 16:24 21,4 C 61 % 1020,3 hPa 0,0 l/m 6,6 km/h SW 219 1 min 0,000 mm 2,2 UV-I 381 W/m 13,6 C 21,3 C 11,5 km/h 96,55 %
16.06.2019 16:23 21,4 C 62 % 1020,2 hPa 0,0 l/m 10,1 km/h S 188 1 min 0,000 mm 2,2 UV-I 381 W/m 13,8 C 20,2 C 15,3 km/h 100,00 %
16.06.2019 16:22 21,4 C 62 % 1020,3 hPa 0,0 l/m 11,6 km/h S-SW 209 1 min 0,000 mm 2,2 UV-I 385 W/m 13,8 C 19,7 C 19,1 km/h 100,00 %
16.06.2019 16:21 21,4 C 62 % 1020,3 hPa 0,0 l/m 6,5 km/h S 187 1 min 0,000 mm 2,1 UV-I 363 W/m 13,8 C 21,4 C 13,4 km/h 95,83 %
16.06.2019 16:20 21,3 C 62 % 1020,2 hPa 0,0 l/m 5,7 km/h S 178 1 min 0,000 mm 2,1 UV-I 359 W/m 13,7 C 21,3 C 9,6 km/h 100,00 %
16.06.2019 16:19 21,3 C 61 % 1020,2 hPa 0,0 l/m 8,8 km/h SW 229 1 min 0,000 mm 2,2 UV-I 361 W/m 13,5 C 20,4 C 11,5 km/h 100,00 %
16.06.2019 16:18 21,3 C 61 % 1020,1 hPa 0,0 l/m 8,6 km/h S 186 1 min 0,000 mm 2,2 UV-I 367 W/m 13,5 C 20,5 C 21,0 km/h 100,00 %
16.06.2019 16:17 21,3 C 62 % 1020,2 hPa 0,0 l/m 9,1 km/h S 188 1 min 0,000 mm 2,2 UV-I 372 W/m 13,7 C 20,4 C 13,4 km/h 100,00 %
16.06.2019 16:16 21,3 C 61 % 1020,3 hPa 0,0 l/m 11,3 km/h S-SW 212 1 min 0,000 mm 2,2 UV-I 375 W/m 13,5 C 19,7 C 15,3 km/h 90,91 %
16.06.2019 16:15 21,3 C 62 % 1020,3 hPa 0,0 l/m 12,6 km/h S 176 1 min 0,000 mm 2,2 UV-I 375 W/m 13,7 C 19,4 C 17,2 km/h 100,00 %
16.06.2019 16:14 21,3 C 63 % 1020,3 hPa 0,0 l/m 6,1 km/h S-SW 198 1 min 0,000 mm 2,2 UV-I 372 W/m 14,0 C 21,3 C 11,5 km/h 100,00 %
16.06.2019 16:13 21,3 C 62 % 1020,2 hPa 0,0 l/m 4,9 km/h S-SW 199 1 min 0,000 mm 2,1 UV-I 367 W/m 13,7 C 21,3 C 7,7 km/h 100,00 %
16.06.2019 16:12 21,3 C 62 % 1020,3 hPa 0,0 l/m 9,7 km/h S-SW 213 1 min 0,000 mm 2,1 UV-I 353 W/m 13,7 C 20,2 C 17,2 km/h 100,00 %
16.06.2019 16:11 21,3 C 62 % 1020,2 hPa 0,0 l/m 9,0 km/h S-SW 192 1 min 0,000 mm 2,0 UV-I 339 W/m 13,7 C 20,4 C 13,4 km/h 96,30 %
16.06.2019 16:10 21,3 C 63 % 1020,3 hPa 0,0 l/m 6,7 km/h S 170 1 min 0,000 mm 2,0 UV-I 331 W/m 14,0 C 21,2 C 11,5 km/h 100,00 %
16.06.2019 16:09 21,2 C 62 % 1020,3 hPa 0,0 l/m 5,7 km/h S-SW 206 1 min 0,000 mm 2,0 UV-I 331 W/m 13,6 C 21,2 C 11,5 km/h 100,00 %
16.06.2019 16:08 21,2 C 62 % 1020,3 hPa 0,0 l/m 7,7 km/h S-SW 198 1 min 0,000 mm 2,0 UV-I 328 W/m 13,6 C 20,7 C 11,5 km/h 100,00 %
16.06.2019 16:07 21,3 C 62 % 1020,3 hPa 0,0 l/m 7,1 km/h S-SW 208 1 min 0,000 mm 2,1 UV-I 331 W/m 13,7 C 21,0 C 11,5 km/h 100,00 %
16.06.2019 16:06 21,3 C 62 % 1020,2 hPa 0,0 l/m 9,2 km/h S 184 1 min 0,000 mm 2,1 UV-I 339 W/m 13,7 C 20,3 C 15,3 km/h 92,31 %
16.06.2019 16:05 21,3 C 62 % 1020,3 hPa 0,0 l/m 8,4 km/h S 182 1 min 0,000 mm 2,1 UV-I 346 W/m 13,7 C 20,6 C 13,4 km/h 100,00 %
16.06.2019 16:04 21,3 C 62 % 1020,3 hPa 0,0 l/m 8,5 km/h S-SO 150 1 min 0,000 mm 2,1 UV-I 351 W/m 13,7 C 20,5 C 11,5 km/h 100,00 %
16.06.2019 16:03 21,3 C 63 % 1020,3 hPa 0,0 l/m 5,9 km/h S 176 1 min 0,000 mm 2,1 UV-I 353 W/m 14,0 C 21,3 C 15,3 km/h 100,00 %
16.06.2019 16:02 21,2 C 63 % 1020,2 hPa 0,0 l/m 7,7 km/h S-SW 211 1 min 0,000 mm 2,1 UV-I 350 W/m 13,9 C 20,7 C 11,5 km/h 100,00 %
16.06.2019 16:01 21,2 C 63 % 1020,2 hPa 0,0 l/m 7,6 km/h S-SO 152 1 min 0,000 mm 2,0 UV-I 340 W/m 13,9 C 20,8 C 11,5 km/h 100,00 %
16.06.2019 16:00 21,2 C 62 % 1020,2 hPa 0,0 l/m 7,2 km/h S-SW 200 1 min 0,304 mm 2,0 UV-I 328 W/m 13,6 C 20,9 C 11,5 km/h 100,00 %
16.06.2019 15:59 21,2 C 62 % 1020,2 hPa 0,0 l/m 8,3 km/h S 169 1 min 0,000 mm 1,8 UV-I 309 W/m 13,6 C 20,5 C 11,5 km/h 100,00 %
16.06.2019 15:58 21,2 C 62 % 1020,3 hPa 0,0 l/m 6,4 km/h S-SW 211 1 min 0,000 mm 1,7 UV-I 289 W/m 13,6 C 21,2 C 11,5 km/h 100,00 %
16.06.2019 15:57 21,3 C 62 % 1020,3 hPa 0,0 l/m 14,0 km/h S-SW 202 0 min 0,000 mm 1,6 UV-I 263 W/m 13,7 C 19,0 C 19,1 km/h 100,00 %
16.06.2019 15:56 21,3 C 62 % 1020,3 hPa 0,0 l/m 8,9 km/h S-SW 207 0 min 0,000 mm 1,5 UV-I 243 W/m 13,7 C 20,4 C 19,1 km/h 100,00 %
16.06.2019 15:55 21,3 C 61 % 1020,3 hPa 0,0 l/m 8,7 km/h S-SW 197 0 min 0,000 mm 1,4 UV-I 226 W/m 13,5 C 20,5 C 13,4 km/h 100,00 %
16.06.2019 15:54 21,4 C 62 % 1020,2 hPa 0,0 l/m 10,6 km/h S-SW 192 0 min 0,000 mm 1,4 UV-I 220 W/m 13,8 C 20,0 C 17,2 km/h 100,00 %
16.06.2019 15:53 21,4 C 62 % 1020,3 hPa 0,0 l/m 7,3 km/h SW 223 0 min 0,000 mm 1,4 UV-I 218 W/m 13,8 C 21,1 C 11,5 km/h 100,00 %
16.06.2019 15:52 21,3 C 62 % 1020,3 hPa 0,0 l/m 4,4 km/h SW 226 0 min 0,000 mm 1,6 UV-I 221 W/m 13,7 C 21,3 C 7,7 km/h 100,00 %
16.06.2019 15:51 21,3 C 61 % 1020,3 hPa 0,0 l/m 4,5 km/h W-SW 240 0 min 0,000 mm 1,6 UV-I 227 W/m 13,5 C 21,3 C 9,6 km/h 100,00 %
16.06.2019 15:50 21,4 C 61 % 1020,3 hPa 0,0 l/m 11,6 km/h SW 234 0 min 0,000 mm 1,7 UV-I 237 W/m 13,6 C 19,7 C 15,3 km/h 100,00 %
16.06.2019 15:49 21,4 C 61 % 1020,3 hPa 0,0 l/m 9,4 km/h SW 221 0 min 0,000 mm 1,8 UV-I 246 W/m 13,6 C 20,4 C 15,3 km/h 100,00 %
16.06.2019 15:48 21,4 C 60 % 1020,3 hPa 0,0 l/m 8,6 km/h W-SW 248 0 min 0,000 mm 1,9 UV-I 256 W/m 13,3 C 20,6 C 13,4 km/h 95,65 %
16.06.2019 15:47 21,4 C 60 % 1020,3 hPa 0,0 l/m 12,6 km/h SW 225 0 min 0,000 mm 2,0 UV-I 267 W/m 13,3 C 19,5 C 17,2 km/h 100,00 %
16.06.2019 15:46 21,4 C 60 % 1020,3 hPa 0,0 l/m 12,2 km/h SW 234 0 min 0,000 mm 2,1 UV-I 275 W/m 13,3 C 19,6 C 21,0 km/h 96,15 %
16.06.2019 15:45 21,4 C 60 % 1020,3 hPa 0,0 l/m 7,5 km/h W-SW 242 0 min 0,000 mm 2,2 UV-I 285 W/m 13,3 C 21,0 C 15,3 km/h 100,00 %
16.06.2019 15:44 21,4 C 60 % 1020,3 hPa 0,0 l/m 14,7 km/h SW 226 1 min 0,000 mm 2,2 UV-I 297 W/m 13,3 C 19,0 C 23,0 km/h 100,00 %
16.06.2019 15:43 21,4 C 60 % 1020,3 hPa 0,0 l/m 13,1 km/h W-SW 244 1 min 0,000 mm 2,3 UV-I 308 W/m 13,3 C 19,4 C 21,0 km/h 100,00 %
16.06.2019 15:42 21,4 C 60 % 1020,3 hPa 0,0 l/m 9,9 km/h W-SW 254 1 min 0,000 mm 2,3 UV-I 323 W/m 13,3 C 20,2 C 15,3 km/h 100,00 %
16.06.2019 15:41 21,4 C 61 % 1020,3 hPa 0,0 l/m 12,8 km/h S-SW 209 1 min 0,000 mm 2,4 UV-I 336 W/m 13,6 C 19,4 C 23,0 km/h 100,00 %
16.06.2019 15:40 21,4 C 60 % 1020,3 hPa 0,0 l/m 5,5 km/h S-SW 209 1 min 0,000 mm 2,7 UV-I 339 W/m 13,3 C 21,4 C 9,6 km/h 100,00 %
16.06.2019 15:39 21,4 C 60 % 1020,3 hPa 0,0 l/m 10,7 km/h NW 308 1 min 0,000 mm 2,4 UV-I 339 W/m 13,3 C 20,0 C 15,3 km/h 100,00 %
16.06.2019 15:38 21,4 C 60 % 1020,3 hPa 0,0 l/m 15,0 km/h W-SW 252 1 min 0,000 mm 2,2 UV-I 326 W/m 13,3 C 18,9 C 24,9 km/h 100,00 %
16.06.2019 15:37 21,4 C 60 % 1020,3 hPa 0,0 l/m 10,4 km/h S-SW 209 1 min 0,000 mm 2,0 UV-I 308 W/m 13,3 C 20,1 C 17,2 km/h 100,00 %
16.06.2019 15:36 21,4 C 59 % 1020,3 hPa 0,0 l/m 10,9 km/h S-SW 209 0 min 0,000 mm 1,9 UV-I 283 W/m 13,0 C 19,9 C 19,1 km/h 100,00 %
16.06.2019 15:35 21,4 C 59 % 1020,3 hPa 0,0 l/m 11,1 km/h SW 234 0 min 0,000 mm 1,8 UV-I 263 W/m 13,0 C 19,9 C 15,3 km/h 100,00 %
16.06.2019 15:34 21,5 C 58 % 1020,3 hPa 0,0 l/m 15,1 km/h SW 224 0 min 0,000 mm 1,7 UV-I 246 W/m 12,9 C 19,0 C 24,9 km/h 100,00 %
16.06.2019 15:33 21,6 C 59 % 1020,4 hPa 0,0 l/m 18,6 km/h SW 232 0 min 0,000 mm 1,7 UV-I 235 W/m 13,2 C 18,5 C 28,7 km/h 100,00 %
16.06.2019 15:32 21,6 C 60 % 1020,3 hPa 0,0 l/m 16,9 km/h W 274 0 min 0,000 mm 1,7 UV-I 230 W/m 13,5 C 18,8 C 24,9 km/h 100,00 %
16.06.2019 15:31 21,6 C 60 % 1020,2 hPa 0,0 l/m 7,8 km/h SW 225 0 min 0,000 mm 1,8 UV-I 229 W/m 13,5 C 21,1 C 13,4 km/h 100,00 %
16.06.2019 15:30 21,6 C 59 % 1020,2 hPa 0,0 l/m 8,8 km/h S-SW 207 0 min 0,000 mm 1,8 UV-I 233 W/m 13,2 C 20,8 C 11,5 km/h 100,00 %
16.06.2019 15:29 21,7 C 60 % 1020,2 hPa 0,0 l/m 6,7 km/h S-SW 210 0 min 0,000 mm 2,0 UV-I 244 W/m 13,6 C 21,6 C 11,5 km/h 100,00 %
16.06.2019 15:28 21,7 C 59 % 1020,2 hPa 0,0 l/m 13,9 km/h S-SW 196 0 min 0,000 mm 2,1 UV-I 258 W/m 13,3 C 19,5 C 19,1 km/h 100,00 %
16.06.2019 15:27 21,8 C 59 % 1020,2 hPa 0,0 l/m 13,6 km/h S-SW 209 0 min 0,000 mm 2,2 UV-I 278 W/m 13,4 C 19,7 C 17,2 km/h 100,00 %
16.06.2019 15:26 21,8 C 58 % 1020,3 hPa 0,0 l/m 12,5 km/h SW 216 1 min 0,000 mm 2,2 UV-I 298 W/m 13,2 C 20,0 C 21,0 km/h 96,30 %
16.06.2019 15:25 21,8 C 58 % 1020,2 hPa 0,0 l/m 15,1 km/h SW 221 1 min 0,000 mm 2,3 UV-I 313 W/m 13,2 C 19,4 C 23,0 km/h 100,00 %
16.06.2019 15:24 21,9 C 57 % 1020,2 hPa 0,0 l/m 16,4 km/h W 267 1 min 0,000 mm 2,5 UV-I 350 W/m 13,0 C 19,3 C 28,7 km/h 100,00 %
16.06.2019 15:23 22,1 C 57 % 1020,1 hPa 0,0 l/m 20,8 km/h W-SW 243 1 min 0,000 mm 2,5 UV-I 310 W/m 13,2 C 18,8 C 32,5 km/h 100,00 %
16.06.2019 15:22 22,1 C 57 % 1020,2 hPa 0,0 l/m 18,1 km/h W-SW 244 1 min 0,000 mm 2,6 UV-I 474 W/m 13,2 C 19,2 C 30,6 km/h 100,00 %
16.06.2019 15:21 22,2 C 57 % 1020,2 hPa 0,0 l/m 10,8 km/h SW 221 1 min 0,000 mm 3,6 UV-I 664 W/m 13,3 C 20,9 C 17,2 km/h 100,00 %
16.06.2019 15:20 22,2 C 56 % 1020,2 hPa 0,0 l/m 15,3 km/h SW 230 1 min 0,000 mm 3,9 UV-I 498 W/m 13,0 C 19,9 C 21,0 km/h 100,00 %
16.06.2019 15:19 22,2 C 56 % 1020,1 hPa 0,0 l/m 14,4 km/h W-NW 284 1 min 0,000 mm 3,3 UV-I 454 W/m 13,0 C 20,0 C 23,0 km/h 100,00 %
16.06.2019 15:18 22,2 C 56 % 1020,1 hPa 0,0 l/m 15,9 km/h W-SW 245 1 min 0,000 mm 3,5 UV-I 474 W/m 13,0 C 19,7 C 21,0 km/h 100,00 %
16.06.2019 15:17 22,3 C 57 % 1020,1 hPa 0,0 l/m 12,5 km/h SW 224 1 min 0,000 mm 3,3 UV-I 513 W/m 13,4 C 20,6 C 26,8 km/h 100,00 %
16.06.2019 15:16 22,3 C 55 % 1020,1 hPa 0,0 l/m 16,7 km/h W-SW 242 1 min 0,000 mm 3,5 UV-I 513 W/m 12,8 C 19,7 C 21,0 km/h 100,00 %
16.06.2019 15:15 22,4 C 56 % 1020,1 hPa 0,0 l/m 21,4 km/h SW 229 1 min 0,000 mm 3,5 UV-I 513 W/m 13,2 C 19,1 C 28,7 km/h 93,10 %
16.06.2019 15:14 22,4 C 56 % 1020,0 hPa 0,0 l/m 10,4 km/h SW 223 1 min 0,000 mm 5,1 UV-I 513 W/m 13,2 C 21,2 C 19,1 km/h 100,00 %
16.06.2019 15:13 22,4 C 56 % 1020,0 hPa 0,0 l/m 12,2 km/h SW 215 1 min 0,000 mm 3,7 UV-I 513 W/m 13,2 C 20,7 C 19,1 km/h 100,00 %
16.06.2019 15:12 22,4 C 56 % 1020,0 hPa 0,0 l/m 9,8 km/h S-SW 211 1 min 0,000 mm 3,6 UV-I 518 W/m 13,2 C 21,3 C 15,3 km/h 100,00 %
16.06.2019 15:11 22,4 C 57 % 1020,0 hPa 0,0 l/m 13,0 km/h S 190 1 min 0,000 mm 3,8 UV-I 546 W/m 13,5 C 20,6 C 17,2 km/h 100,00 %
16.06.2019 15:10 22,4 C 56 % 1020,0 hPa 0,0 l/m 9,3 km/h SW 236 1 min 0,000 mm 3,9 UV-I 590 W/m 13,2 C 21,5 C 19,1 km/h 100,00 %
16.06.2019 15:09 22,4 C 56 % 1020,0 hPa 0,0 l/m 11,8 km/h S-SW 198 1 min 0,000 mm 3,9 UV-I 588 W/m 13,2 C 20,8 C 21,0 km/h 100,00 %
16.06.2019 15:08 22,4 C 55 % 1020,0 hPa 0,0 l/m 9,6 km/h SW 219 1 min 0,000 mm 3,8 UV-I 563 W/m 12,9 C 21,4 C 13,4 km/h 100,00 %
16.06.2019 15:07 22,4 C 55 % 1020,0 hPa 0,0 l/m 12,4 km/h SW 219 1 min 0,000 mm 4,7 UV-I 547 W/m 12,9 C 20,7 C 19,1 km/h 100,00 %
16.06.2019 15:06 22,5 C 55 % 1020,1 hPa 0,0 l/m 19,4 km/h SW 232 1 min 0,000 mm 4,8 UV-I 547 W/m 13,0 C 19,5 C 28,7 km/h 96,30 %
16.06.2019 15:05 22,4 C 56 % 1020,0 hPa 0,0 l/m 5,5 km/h W-SW 241 1 min 0,000 mm 3,7 UV-I 548 W/m 13,2 C 22,4 C 13,4 km/h 100,00 %
16.06.2019 15:04 22,3 C 55 % 1020,0 hPa 0,0 l/m 6,5 km/h SW 218 1 min 0,000 mm 3,5 UV-I 494 W/m 12,8 C 22,3 C 13,4 km/h 100,00 %
16.06.2019 15:03 22,3 C 55 % 1020,0 hPa 0,0 l/m 10,3 km/h SW 219 1 min 0,000 mm 3,3 UV-I 448 W/m 12,8 C 21,1 C 15,3 km/h 100,00 %
16.06.2019 15:02 22,3 C 54 % 1020,0 hPa 0,0 l/m 8,7 km/h SW 232 1 min 0,000 mm 3,8 UV-I 769 W/m 12,5 C 21,6 C 13,4 km/h 100,00 %
16.06.2019 15:01 22,3 C 54 % 1020,0 hPa 0,0 l/m 12,2 km/h W-SW 244 1 min 0,000 mm 4,4 UV-I 793 W/m 12,5 C 20,6 C 17,2 km/h 100,00 %
16.06.2019 15:00 22,4 C 55 % 1020,0 hPa 0,0 l/m 15,9 km/h SW 223 1 min 0,534 mm 4,7 UV-I 714 W/m 12,9 C 20,0 C 23,0 km/h 100,00 %
16.06.2019 14:59 22,4 C 55 % 1019,9 hPa 0,0 l/m 13,6 km/h S-SW 198 1 min 0,000 mm 4,1 UV-I 487 W/m 12,9 C 20,4 C 19,1 km/h 100,00 %
16.06.2019 14:58 22,4 C 56 % 1020,0 hPa 0,0 l/m 14,6 km/h W 266 1 min 0,000 mm 3,6 UV-I 485 W/m 13,2 C 20,2 C 23,0 km/h 100,00 %
16.06.2019 14:57 22,4 C 56 % 1019,9 hPa 0,0 l/m 9,6 km/h S-SW 209 1 min 0,000 mm 3,6 UV-I 505 W/m 13,2 C 21,4 C 17,2 km/h 100,00 %
16.06.2019 14:56 22,3 C 56 % 1020,0 hPa 0,0 l/m 11,2 km/h S 174 1 min 0,000 mm 4,0 UV-I 628 W/m 13,1 C 20,9 C 21,0 km/h 100,00 %
16.06.2019 14:55 22,3 C 58 % 1019,9 hPa 0,0 l/m 12,2 km/h W-SW 242 1 min 0,000 mm 3,9 UV-I 638 W/m 13,6 C 20,6 C 17,2 km/h 100,00 %
16.06.2019 14:54 22,2 C 58 % 1019,9 hPa 0,0 l/m 6,3 km/h S-SW 209 1 min 0,000 mm 4,7 UV-I 1099 W/m 13,5 C 22,2 C 9,6 km/h 100,00 %
16.06.2019 14:53 22,2 C 56 % 1019,9 hPa 0,0 l/m 13,3 km/h S-SW 200 1 min 0,000 mm 5,6 UV-I 1099 W/m 13,0 C 20,3 C 19,1 km/h 100,00 %
16.06.2019 14:52 22,2 C 57 % 1019,9 hPa 0,0 l/m 13,3 km/h SW 232 1 min 0,000 mm 4,6 UV-I 1099 W/m 13,3 C 20,3 C 17,2 km/h 100,00 %
16.06.2019 14:51 22,2 C 56 % 1019,9 hPa 0,0 l/m 14,6 km/h S-SW 200 1 min 0,000 mm 5,2 UV-I 1099 W/m 13,0 C 20,0 C 21,0 km/h 100,00 %
16.06.2019 14:50 22,3 C 56 % 1020,0 hPa 0,0 l/m 16,0 km/h SW 221 1 min 0,000 mm 5,4 UV-I 1099 W/m 13,1 C 19,8 C 26,8 km/h 100,00 %
16.06.2019 14:49 22,3 C 57 % 1019,9 hPa 0,0 l/m 12,5 km/h SW 231 1 min 0,000 mm 5,0 UV-I 1083 W/m 13,4 C 20,6 C 26,8 km/h 100,00 %
16.06.2019 14:48 22,3 C 56 % 1019,9 hPa 0,0 l/m 16,3 km/h W-SW 253 1 min 0,000 mm 5,0 UV-I 1053 W/m 13,1 C 19,8 C 24,9 km/h 100,00 %
16.06.2019 14:47 22,3 C 56 % 1019,9 hPa 0,0 l/m 11,2 km/h W-SW 242 1 min 0,000 mm 5,9 UV-I 870 W/m 13,1 C 20,9 C 19,1 km/h 100,00 %
16.06.2019 14:46 22,4 C 56 % 1020,0 hPa 0,0 l/m 14,2 km/h SW 219 1 min 0,000 mm 5,8 UV-I 657 W/m 13,2 C 20,3 C 23,0 km/h 100,00 %
16.06.2019 14:45 22,5 C 58 % 1020,0 hPa 0,0 l/m 15,8 km/h SW 235 1 min 0,000 mm 4,6 UV-I 657 W/m 13,8 C 20,1 C 28,7 km/h 100,00 %
16.06.2019 14:44 22,5 C 57 % 1019,9 hPa 0,0 l/m 7,6 km/h SW 217 1 min 0,000 mm 4,6 UV-I 1023 W/m 13,5 C 22,1 C 13,4 km/h 99,06 %
16.06.2019 14:43 22,6 C 57 % 1019,9 hPa 0,0 l/m 8,5 km/h S-SO 155 1 min 0,000 mm 4,5 UV-I 1062 W/m 13,6 C 21,9 C 17,2 km/h 100,00 %
16.06.2019 14:42 22,6 C 56 % 1019,9 hPa 0,0 l/m 8,7 km/h S-SW 202 1 min 0,000 mm 5,1 UV-I 1062 W/m 13,4 C 21,9 C 13,4 km/h 100,00 %
16.06.2019 14:41 22,7 C 55 % 1020,0 hPa 0,0 l/m 13,8 km/h W-SW 240 1 min 0,000 mm 3,7 UV-I 1062 W/m 13,2 C 20,8 C 26,8 km/h 95,65 %
16.06.2019 14:40 22,8 C 56 % 1019,9 hPa 0,0 l/m 15,0 km/h W-SW 248 1 min 0,000 mm 3,3 UV-I 1062 W/m 13,6 C 20,6 C 19,1 km/h 100,00 %
16.06.2019 14:39 22,8 C 56 % 1019,9 hPa 0,0 l/m 12,9 km/h S-SW 207 1 min 0,000 mm 4,0 UV-I 1062 W/m 13,6 C 21,1 C 19,1 km/h 100,00 %
16.06.2019 14:38 22,9 C 56 % 1019,9 hPa 0,0 l/m 14,9 km/h SW 226 1 min 0,000 mm 4,9 UV-I 1062 W/m 13,6 C 20,8 C 21,0 km/h 100,00 %
16.06.2019 14:37 23,0 C 56 % 1019,8 hPa 0,0 l/m 13,5 km/h SW 222 1 min 0,000 mm 5,8 UV-I 1050 W/m 13,7 C 21,2 C 24,9 km/h 100,00 %
16.06.2019 14:36 23,1 C 55 % 1019,8 hPa 0,0 l/m 9,2 km/h SW 228 1 min 0,000 mm 5,9 UV-I 1019 W/m 13,6 C 22,3 C 15,3 km/h 100,00 %
16.06.2019 14:35 23,2 C 55 % 1019,9 hPa 0,0 l/m 19,0 km/h SW 224 1 min 0,000 mm 5,9 UV-I 522 W/m 13,6 C 20,5 C 30,6 km/h 100,00 %
16.06.2019 14:34 23,2 C 56 % 1019,9 hPa 0,0 l/m 16,6 km/h SW 217 0 min 0,000 mm 4,4 UV-I 257 W/m 13,9 C 20,9 C 28,7 km/h 100,00 %
16.06.2019 14:33 23,2 C 57 % 1019,9 hPa 0,0 l/m 12,8 km/h W-SW 251 1 min 0,000 mm 3,7 UV-I 896 W/m 14,2 C 21,5 C 19,1 km/h 100,00 %
16.06.2019 14:32 23,2 C 56 % 1019,7 hPa 0,0 l/m 7,9 km/h SW 215 1 min 0,000 mm 5,9 UV-I 1011 W/m 13,9 C 22,7 C 11,5 km/h 100,00 %
16.06.2019 14:31 23,1 C 56 % 1019,8 hPa 0,0 l/m 11,8 km/h S 187 1 min 0,000 mm 4,6 UV-I 1023 W/m 13,8 C 21,6 C 21,0 km/h 100,00 %
16.06.2019 14:30 23,0 C 57 % 1019,8 hPa 0,0 l/m 8,3 km/h S-SW 211 1 min 0,000 mm 5,1 UV-I 1023 W/m 14,0 C 22,4 C 13,4 km/h 100,00 %
16.06.2019 14:29 22,9 C 58 % 1019,8 hPa 0,0 l/m 10,9 km/h SW 215 1 min 0,000 mm 5,8 UV-I 1029 W/m 14,2 C 21,6 C 15,3 km/h 100,00 %
16.06.2019 14:28 22,8 C 58 % 1019,8 hPa 0,0 l/m 7,0 km/h S-SW 204 1 min 0,000 mm 5,4 UV-I 1025 W/m 14,1 C 22,6 C 9,6 km/h 100,00 %
16.06.2019 14:27 22,7 C 59 % 1019,8 hPa 0,0 l/m 10,8 km/h S-SW 206 1 min 0,000 mm 5,8 UV-I 999 W/m 14,3 C 21,4 C 19,1 km/h 100,00 %
16.06.2019 14:26 22,6 C 58 % 1019,8 hPa 0,0 l/m 5,7 km/h S 177 1 min 0,000 mm 5,8 UV-I 984 W/m 13,9 C 22,6 C 9,6 km/h 100,00 %
16.06.2019 14:25 22,5 C 57 % 1019,7 hPa 0,0 l/m 9,0 km/h S-SO 149 1 min 0,000 mm 5,8 UV-I 1003 W/m 13,5 C 21,7 C 17,2 km/h 100,00 %
16.06.2019 14:24 22,5 C 57 % 1019,8 hPa 0,0 l/m 8,6 km/h S-SW 211 1 min 0,000 mm 5,9 UV-I 739 W/m 13,5 C 21,8 C 13,4 km/h 100,00 %
16.06.2019 14:23 22,6 C 55 % 1019,8 hPa 0,0 l/m 13,3 km/h S-SW 208 0 min 0,000 mm 3,8 UV-I 192 W/m 13,1 C 20,7 C 19,1 km/h 100,00 %
16.06.2019 14:22 22,8 C 55 % 1019,8 hPa 0,0 l/m 12,6 km/h S-SW 207 0 min 0,000 mm 2,8 UV-I 173 W/m 13,3 C 21,1 C 19,1 km/h 100,00 %
16.06.2019 14:21 22,8 C 57 % 1019,8 hPa 0,0 l/m 16,2 km/h SW 219 0 min 0,000 mm 3,4 UV-I 272 W/m 13,8 C 20,4 C 23,0 km/h 100,00 %
16.06.2019 14:20 22,8 C 57 % 1019,7 hPa 0,0 l/m 8,8 km/h SW 223 1 min 0,000 mm 3,4 UV-I 1044 W/m 13,8 C 22,1 C 11,5 km/h 100,00 %
16.06.2019 14:19 22,8 C 57 % 1019,7 hPa 0,0 l/m 9,2 km/h SW 229 1 min 0,000 mm 5,0 UV-I 1040 W/m 13,8 C 21,9 C 15,3 km/h 100,00 %
16.06.2019 14:18 22,7 C 55 % 1019,7 hPa 0,0 l/m 11,3 km/h SW 222 1 min 0,000 mm 6,0 UV-I 1032 W/m 13,2 C 21,3 C 21,0 km/h 100,00 %
16.06.2019 14:17 22,8 C 55 % 1019,7 hPa 0,0 l/m 13,8 km/h S 169 1 min 0,000 mm 5,9 UV-I 1032 W/m 13,3 C 20,9 C 24,9 km/h 100,00 %
16.06.2019 14:16 22,8 C 55 % 1019,7 hPa 0,0 l/m 9,0 km/h S 178 1 min 0,000 mm 5,8 UV-I 1006 W/m 13,3 C 22,0 C 13,4 km/h 100,00 %
16.06.2019 14:15 22,8 C 55 % 1019,8 hPa 0,0 l/m 11,0 km/h S-SO 160 1 min 0,000 mm 5,8 UV-I 976 W/m 13,3 C 21,5 C 19,1 km/h 100,00 %
16.06.2019 14:14 22,8 C 56 % 1019,8 hPa 0,0 l/m 12,9 km/h S 190 1 min 0,000 mm 5,8 UV-I 961 W/m 13,6 C 21,1 C 19,1 km/h 96,88 %
16.06.2019 14:13 22,7 C 57 % 1019,7 hPa 0,0 l/m 8,6 km/h SW 218 1 min 0,000 mm 5,8 UV-I 950 W/m 13,7 C 22,0 C 13,4 km/h 100,00 %
16.06.2019 14:12 22,7 C 55 % 1019,8 hPa 0,0 l/m 10,9 km/h SO 141 1 min 0,000 mm 5,8 UV-I 938 W/m 13,2 C 21,4 C 17,2 km/h 100,00 %
16.06.2019 14:11 22,7 C 54 % 1019,8 hPa 0,0 l/m 14,2 km/h S-SW 195 1 min 0,000 mm 5,8 UV-I 931 W/m 12,9 C 20,7 C 21,0 km/h 100,00 %
16.06.2019 14:10 22,7 C 55 % 1019,7 hPa 0,0 l/m 14,9 km/h S-SW 203 1 min 0,000 mm 5,8 UV-I 928 W/m 13,2 C 20,5 C 23,0 km/h 100,00 %
16.06.2019 14:09 22,7 C 57 % 1019,7 hPa 0,0 l/m 9,8 km/h SW 225 1 min 0,000 mm 5,8 UV-I 923 W/m 13,7 C 21,7 C 13,4 km/h 100,00 %
16.06.2019 14:08 22,6 C 57 % 1019,7 hPa 0,0 l/m 8,9 km/h SW 217 1 min 0,000 mm 5,8 UV-I 922 W/m 13,6 C 21,8 C 15,3 km/h 100,00 %
16.06.2019 14:07 22,4 C 56 % 1019,7 hPa 0,0 l/m 9,4 km/h SW 214 1 min 0,000 mm 5,8 UV-I 922 W/m 13,2 C 21,5 C 15,3 km/h 100,00 %
16.06.2019 14:06 22,4 C 57 % 1019,7 hPa 0,0 l/m 14,4 km/h S-SW 205 1 min 0,000 mm 5,8 UV-I 922 W/m 13,5 C 20,3 C 26,8 km/h 95,83 %
16.06.2019 14:05 22,3 C 56 % 1019,7 hPa 0,0 l/m 12,0 km/h S 182 1 min 0,000 mm 5,8 UV-I 920 W/m 13,1 C 20,7 C 15,3 km/h 100,00 %
16.06.2019 14:04 22,3 C 56 % 1019,7 hPa 0,0 l/m 13,3 km/h SW 234 1 min 0,000 mm 5,8 UV-I 915 W/m 13,1 C 20,4 C 21,0 km/h 100,00 %
16.06.2019 14:03 22,3 C 57 % 1019,8 hPa 0,0 l/m 8,7 km/h SW 234 1 min 0,000 mm 5,8 UV-I 916 W/m 13,4 C 21,6 C 19,1 km/h 100,00 %
16.06.2019 14:02 22,2 C 57 % 1019,8 hPa 0,0 l/m 14,4 km/h S-SO 155 1 min 0,000 mm 5,8 UV-I 916 W/m 13,3 C 20,0 C 19,1 km/h 100,00 %
16.06.2019 14:01 22,2 C 58 % 1019,8 hPa 0,0 l/m 12,8 km/h S-SW 201 1 min 0,000 mm 5,8 UV-I 914 W/m 13,5 C 20,4 C 21,0 km/h 100,00 %
16.06.2019 14:00 22,2 C 58 % 1019,9 hPa 0,0 l/m 13,6 km/h SW 234 1 min 0,432 mm 5,8 UV-I 915 W/m 13,5 C 20,2 C 19,1 km/h 100,00 %
16.06.2019 13:59 22,2 C 59 % 1019,8 hPa 0,0 l/m 11,7 km/h SW 218 1 min 0,000 mm 5,8 UV-I 919 W/m 13,8 C 20,6 C 17,2 km/h 100,00 %
16.06.2019 13:58 22,1 C 60 % 1019,8 hPa 0,0 l/m 11,6 km/h SW 221 1 min 0,000 mm 5,8 UV-I 919 W/m 14,0 C 20,5 C 15,3 km/h 100,00 %
16.06.2019 13:57 22,1 C 60 % 1019,9 hPa 0,0 l/m 13,0 km/h S-SW 207 1 min 0,000 mm 5,8 UV-I 930 W/m 14,0 C 20,2 C 19,1 km/h 100,00 %
16.06.2019 13:56 22,1 C 60 % 1019,9 hPa 0,0 l/m 10,6 km/h S-SW 198 1 min 0,000 mm 5,8 UV-I 772 W/m 14,0 C 20,8 C 21,0 km/h 100,00 %
16.06.2019 13:55 22,1 C 59 % 1019,9 hPa 0,0 l/m 13,3 km/h SW 225 0 min 0,000 mm 5,8 UV-I 257 W/m 13,7 C 20,1 C 21,0 km/h 100,00 %
16.06.2019 13:54 22,2 C 59 % 1019,9 hPa 0,0 l/m 14,0 km/h SW 218 1 min 0,000 mm 4,0 UV-I 711 W/m 13,8 C 20,1 C 23,0 km/h 100,00 %
16.06.2019 13:53 22,2 C 59 % 1019,9 hPa 0,0 l/m 17,1 km/h S-SW 207 1 min 0,000 mm 5,5 UV-I 956 W/m 13,8 C 19,5 C 23,0 km/h 100,00 %
16.06.2019 13:52 22,3 C 59 % 1019,9 hPa 0,0 l/m 14,5 km/h S-SW 195 1 min 0,000 mm 4,2 UV-I 956 W/m 13,9 C 20,1 C 23,0 km/h 100,00 %
16.06.2019 13:51 22,3 C 60 % 1019,9 hPa 0,0 l/m 11,0 km/h S 182 1 min 0,000 mm 4,7 UV-I 956 W/m 14,2 C 20,9 C 23,0 km/h 100,00 %
16.06.2019 13:50 22,3 C 59 % 1019,8 hPa 0,0 l/m 6,2 km/h S-SW 207 1 min 0,000 mm 4,1 UV-I 956 W/m 13,9 C 22,3 C 11,5 km/h 100,00 %
16.06.2019 13:49 22,2 C 59 % 1019,8 hPa 0,0 l/m 11,3 km/h S 182 1 min 0,000 mm 5,9 UV-I 952 W/m 13,8 C 20,7 C 19,1 km/h 100,00 %
16.06.2019 13:48 22,2 C 59 % 1019,9 hPa 0,0 l/m 10,3 km/h S 178 1 min 0,000 mm 5,8 UV-I 945 W/m 13,8 C 21,0 C 15,3 km/h 96,15 %
16.06.2019 13:47 22,2 C 60 % 1019,9 hPa 0,0 l/m 12,2 km/h SW 218 1 min 0,000 mm 5,9 UV-I 951 W/m 14,1 C 20,5 C 19,1 km/h 100,00 %
16.06.2019 13:46 22,2 C 60 % 1019,9 hPa 0,0 l/m 15,1 km/h SW 229 1 min 0,000 mm 6,0 UV-I 972 W/m 14,1 C 19,9 C 24,9 km/h 100,00 %
16.06.2019 13:45 22,2 C 62 % 1019,9 hPa 0,0 l/m 9,5 km/h SW 226 1 min 0,000 mm 6,0 UV-I 986 W/m 14,6 C 21,2 C 19,1 km/h 100,00 %
16.06.2019 13:44 22,1 C 61 % 1020,0 hPa 0,0 l/m 10,0 km/h SW 214 1 min 0,000 mm 6,0 UV-I 998 W/m 14,2 C 21,0 C 23,0 km/h 100,00 %
16.06.2019 13:43 22,0 C 61 % 1019,9 hPa 0,0 l/m 14,7 km/h W-SW 251 1 min 0,000 mm 6,0 UV-I 1013 W/m 14,1 C 19,7 C 23,0 km/h 100,00 %
16.06.2019 13:42 21,9 C 62 % 1019,9 hPa 0,0 l/m 18,4 km/h SW 232 1 min 0,000 mm 6,0 UV-I 1023 W/m 14,3 C 18,9 C 24,9 km/h 100,00 %
16.06.2019 13:41 21,9 C 62 % 1019,9 hPa 0,0 l/m 9,0 km/h SW 215 1 min 0,000 mm 6,0 UV-I 1029 W/m 14,3 C 21,0 C 17,2 km/h 100,00 %
16.06.2019 13:40 21,8 C 61 % 1019,9 hPa 0,0 l/m 8,7 km/h SW 221 1 min 0,000 mm 5,4 UV-I 401 W/m 13,9 C 21,0 C 13,4 km/h 100,00 %
16.06.2019 13:39 21,8 C 60 % 1019,9 hPa 0,0 l/m 11,4 km/h S 182 1 min 0,000 mm 3,2 UV-I 327 W/m 13,7 C 20,3 C 19,1 km/h 100,00 %
16.06.2019 13:38 21,8 C 60 % 1019,9 hPa 0,0 l/m 10,8 km/h S-SW 211 0 min 0,000 mm 2,9 UV-I 252 W/m 13,7 C 20,4 C 17,2 km/h 100,00 %
16.06.2019 13:37 21,9 C 60 % 1019,9 hPa 0,0 l/m 7,7 km/h S-SO 163 0 min 0,000 mm 2,8 UV-I 226 W/m 13,8 C 21,4 C 15,3 km/h 100,00 %
16.06.2019 13:36 21,9 C 60 % 1019,9 hPa 0,0 l/m 12,2 km/h S-SW 207 1 min 0,000 mm 2,8 UV-I 744 W/m 13,8 C 20,2 C 19,1 km/h 100,00 %
16.06.2019 13:35 21,9 C 60 % 1019,9 hPa 0,0 l/m 12,9 km/h S 174 1 min 0,000 mm 5,7 UV-I 1030 W/m 13,8 C 20,0 C 17,2 km/h 100,00 %
16.06.2019 13:34 22,0 C 61 % 1019,9 hPa 0,0 l/m 12,4 km/h S-SW 208 1 min 0,000 mm 5,9 UV-I 990 W/m 14,1 C 20,2 C 17,2 km/h 100,00 %
16.06.2019 13:33 22,0 C 60 % 1019,9 hPa 0,0 l/m 10,8 km/h SW 216 1 min 0,000 mm 6,1 UV-I 986 W/m 13,9 C 20,6 C 21,0 km/h 100,00 %
16.06.2019 13:32 22,0 C 60 % 1019,9 hPa 0,0 l/m 13,9 km/h SW 229 1 min 0,000 mm 4,4 UV-I 986 W/m 13,9 C 19,9 C 23,0 km/h 100,00 %
16.06.2019 13:31 22,0 C 60 % 1019,9 hPa 0,0 l/m 12,1 km/h S-SW 210 1 min 0,000 mm 5,3 UV-I 986 W/m 13,9 C 20,3 C 21,0 km/h 96,88 %
16.06.2019 13:30 22,1 C 61 % 1019,9 hPa 0,0 l/m 15,5 km/h SW 219 1 min 0,000 mm 5,9 UV-I 990 W/m 14,2 C 19,7 C 24,9 km/h 100,00 %
16.06.2019 13:29 22,1 C 60 % 1019,9 hPa 0,0 l/m 10,2 km/h SW 217 1 min 0,000 mm 5,9 UV-I 375 W/m 14,0 C 20,9 C 13,4 km/h 100,00 %
16.06.2019 13:28 22,2 C 60 % 1019,9 hPa 0,0 l/m 12,2 km/h SW 234 0 min 0,000 mm 3,7 UV-I 187 W/m 14,1 C 20,5 C 17,2 km/h 100,00 %
16.06.2019 13:27 22,2 C 60 % 1019,8 hPa 0,0 l/m 10,4 km/h S-SW 207 1 min 0,000 mm 4,7 UV-I 409 W/m 14,1 C 21,0 C 17,2 km/h 100,00 %
16.06.2019 13:26 22,2 C 61 % 1019,8 hPa 0,0 l/m 10,6 km/h S 172 1 min 0,000 mm 4,4 UV-I 998 W/m 14,3 C 20,9 C 17,2 km/h 100,00 %
16.06.2019 13:25 22,1 C 63 % 1019,9 hPa 0,0 l/m 11,2 km/h W 261 1 min 0,000 mm 4,4 UV-I 1010 W/m 14,7 C 20,6 C 23,0 km/h 100,00 %
16.06.2019 13:24 22,0 C 62 % 1019,9 hPa 0,0 l/m 7,9 km/h S-SW 196 1 min 0,000 mm 5,6 UV-I 1007 W/m 14,4 C 21,5 C 15,3 km/h 98,10 %
16.06.2019 13:23 21,9 C 62 % 1019,9 hPa 0,0 l/m 8,7 km/h SW 215 1 min 0,000 mm 5,9 UV-I 991 W/m 14,3 C 21,1 C 15,3 km/h 100,00 %
16.06.2019 13:22 21,8 C 62 % 1019,9 hPa 0,0 l/m 9,3 km/h SW 219 1 min 0,000 mm 5,9 UV-I 984 W/m 14,2 C 20,8 C 17,2 km/h 100,00 %
16.06.2019 13:21 21,7 C 62 % 1019,9 hPa 0,0 l/m 10,4 km/h SW 216 1 min 0,000 mm 6,0 UV-I 1012 W/m 14,1 C 20,4 C 19,1 km/h 96,30 %
16.06.2019 13:20 21,6 C 61 % 1020,0 hPa 0,0 l/m 11,5 km/h S-SW 202 1 min 0,000 mm 6,0 UV-I 860 W/m 13,7 C 20,0 C 17,2 km/h 100,00 %
16.06.2019 13:19 21,5 C 61 % 1020,0 hPa 0,0 l/m 14,9 km/h SW 219 1 min 0,000 mm 5,8 UV-I 359 W/m 13,7 C 19,1 C 23,0 km/h 100,00 %
16.06.2019 13:18 21,4 C 61 % 1020,0 hPa 0,0 l/m 15,2 km/h W 270 1 min 0,000 mm 3,8 UV-I 293 W/m 13,6 C 18,9 C 23,0 km/h 100,00 %
16.06.2019 13:17 21,4 C 63 % 1019,9 hPa 0,0 l/m 9,7 km/h SW 235 1 min 0,000 mm 3,7 UV-I 323 W/m 14,1 C 20,3 C 23,0 km/h 100,00 %
16.06.2019 13:16 21,3 C 63 % 1019,9 hPa 0,0 l/m 8,5 km/h SW 214 1 min 0,000 mm 5,5 UV-I 334 W/m 14,0 C 20,5 C 19,1 km/h 100,00 %
16.06.2019 13:15 21,2 C 63 % 1019,9 hPa 0,0 l/m 11,1 km/h SW 221 1 min 0,000 mm 3,7 UV-I 338 W/m 13,9 C 19,7 C 19,1 km/h 100,00 %
16.06.2019 13:14 21,1 C 64 % 1019,9 hPa 0,0 l/m 8,5 km/h W-SW 239 1 min 0,000 mm 5,0 UV-I 348 W/m 14,0 C 20,3 C 11,5 km/h 100,00 %
16.06.2019 13:13 21,1 C 62 % 1019,9 hPa 0,0 l/m 11,1 km/h SW 233 1 min 0,000 mm 4,9 UV-I 348 W/m 13,5 C 19,5 C 15,3 km/h 100,00 %
16.06.2019 13:12 21,1 C 63 % 1019,9 hPa 0,0 l/m 19,2 km/h SW 216 1 min 0,000 mm 3,1 UV-I 342 W/m 13,8 C 17,8 C 24,9 km/h 100,00 %
16.06.2019 13:11 21,1 C 63 % 1019,9 hPa 0,0 l/m 16,3 km/h SW 218 1 min 0,000 mm 3,2 UV-I 376 W/m 13,8 C 18,3 C 23,0 km/h 100,00 %
16.06.2019 13:10 21,1 C 63 % 1019,9 hPa 0,0 l/m 4,3 km/h SW 232 0 min 0,000 mm 3,5 UV-I 223 W/m 13,8 C 21,1 C 7,7 km/h 96,55 %
16.06.2019 13:09 21,2 C 62 % 1020,0 hPa 0,0 l/m 10,3 km/h SW 215 0 min 0,000 mm 3,3 UV-I 223 W/m 13,6 C 19,9 C 19,1 km/h 100,00 %
16.06.2019 13:08 21,3 C 62 % 1020,0 hPa 0,0 l/m 14,9 km/h S-SW 208 0 min 0,000 mm 1,8 UV-I 215 W/m 13,7 C 18,8 C 23,0 km/h 96,15 %
16.06.2019 13:07 21,4 C 62 % 1019,9 hPa 0,0 l/m 8,2 km/h SW 215 0 min 0,000 mm 1,6 UV-I 196 W/m 13,8 C 20,8 C 11,5 km/h 100,00 %
16.06.2019 13:06 21,6 C 61 % 1019,9 hPa 0,0 l/m 10,0 km/h SW 227 0 min 0,000 mm 1,6 UV-I 196 W/m 13,7 C 20,4 C 15,3 km/h 100,00 %
16.06.2019 13:05 21,7 C 60 % 1019,9 hPa 0,0 l/m 16,9 km/h S-SW 211 0 min 0,000 mm 1,7 UV-I 204 W/m 13,6 C 18,9 C 24,9 km/h 100,00 %
16.06.2019 13:04 21,9 C 60 % 1019,9 hPa 0,0 l/m 15,7 km/h W-SW 238 0 min 0,000 mm 1,9 UV-I 228 W/m 13,8 C 19,4 C 24,9 km/h 97,50 %
16.06.2019 13:03 22,1 C 60 % 1020,0 hPa 0,0 l/m 12,8 km/h S-SW 201 0 min 0,000 mm 2,1 UV-I 252 W/m 14,0 C 20,3 C 19,1 km/h 100,00 %
16.06.2019 13:02 22,2 C 60 % 1020,0 hPa 0,0 l/m 17,5 km/h SW 223 0 min 0,000 mm 2,2 UV-I 267 W/m 14,1 C 19,5 C 23,0 km/h 90,91 %
16.06.2019 13:01 22,3 C 60 % 1020,0 hPa 0,0 l/m 10,1 km/h NW 307 0 min 0,000 mm 2,4 UV-I 270 W/m 14,2 C 21,2 C 17,2 km/h 96,30 %
16.06.2019 13:00 22,3 C 60 % 1019,9 hPa 0,0 l/m 11,3 km/h SW 229 1 min 0,483 mm 2,9 UV-I 889 W/m 14,2 C 20,8 C 21,0 km/h 100,00 %
16.06.2019 12:59 22,3 C 60 % 1019,9 hPa 0,0 l/m 13,6 km/h S-SW 200 1 min 0,000 mm 5,6 UV-I 1095 W/m 14,2 C 20,3 C 30,6 km/h 95,83 %
16.06.2019 12:58 22,3 C 60 % 1019,9 hPa 0,0 l/m 11,6 km/h S-SW 205 1 min 0,000 mm 5,4 UV-I 1095 W/m 14,2 C 20,8 C 17,2 km/h 95,65 %
16.06.2019 12:57 22,3 C 59 % 1019,9 hPa 0,0 l/m 9,9 km/h S 190 1 min 0,000 mm 5,7 UV-I 1105 W/m 13,9 C 21,2 C 24,9 km/h 100,00 %
16.06.2019 12:56 22,4 C 59 % 1019,8 hPa 0,0 l/m 17,1 km/h S-SO 151 1 min 0,000 mm 6,2 UV-I 1151 W/m 14,0 C 19,8 C 24,9 km/h 96,15 %
16.06.2019 12:55 22,4 C 59 % 1019,8 hPa 0,0 l/m 11,7 km/h W-SW 238 1 min 0,000 mm 6,0 UV-I 1119 W/m 14,0 C 20,9 C 21,0 km/h 100,00 %
16.06.2019 12:54 22,4 C 59 % 1019,9 hPa 0,0 l/m 12,4 km/h S 179 1 min 0,000 mm 6,0 UV-I 1099 W/m 14,0 C 20,7 C 19,1 km/h 95,83 %
16.06.2019 12:53 22,5 C 59 % 1019,8 hPa 0,0 l/m 11,6 km/h S-SW 200 1 min 0,000 mm 5,9 UV-I 1086 W/m 14,1 C 21,0 C 17,2 km/h 100,00 %
16.06.2019 12:52 22,5 C 59 % 1019,9 hPa 0,0 l/m 15,1 km/h S-SW 196 1 min 0,000 mm 5,8 UV-I 1062 W/m 14,1 C 20,3 C 24,9 km/h 95,83 %
16.06.2019 12:51 22,5 C 60 % 1019,9 hPa 0,0 l/m 7,8 km/h S-SW 194 1 min 0,000 mm 5,8 UV-I 1054 W/m 14,3 C 22,0 C 13,4 km/h 100,00 %
16.06.2019 12:50 22,4 C 61 % 1019,9 hPa 0,0 l/m 10,6 km/h S-SO 157 1 min 0,000 mm 5,9 UV-I 1055 W/m 14,5 C 21,1 C 13,4 km/h 96,30 %
16.06.2019 12:49 22,4 C 61 % 1019,9 hPa 0,0 l/m 9,5 km/h S-SO 160 1 min 0,000 mm 6,0 UV-I 1059 W/m 14,5 C 21,4 C 13,4 km/h 92,31 %
16.06.2019 12:48 22,2 C 62 % 1019,9 hPa 0,0 l/m 14,2 km/h S 178 1 min 0,000 mm 6,0 UV-I 1039 W/m 14,6 C 20,1 C 19,1 km/h 100,00 %
16.06.2019 12:47 22,1 C 63 % 1019,9 hPa 0,0 l/m 9,4 km/h S 188 1 min 0,000 mm 5,6 UV-I 1032 W/m 14,7 C 21,1 C 19,1 km/h 96,15 %
16.06.2019 12:46 21,9 C 62 % 1019,8 hPa 0,0 l/m 10,1 km/h SW 217 1 min 0,000 mm 5,9 UV-I 1026 W/m 14,3 C 20,7 C 15,3 km/h 100,00 %
16.06.2019 12:45 21,7 C 62 % 1019,9 hPa 0,0 l/m 5,5 km/h SW 230 1 min 0,000 mm 5,9 UV-I 1002 W/m 14,1 C 21,7 C 9,6 km/h 95,65 %
16.06.2019 12:44 21,6 C 61 % 1019,8 hPa 0,0 l/m 7,7 km/h S-SW 211 1 min 0,000 mm 5,8 UV-I 998 W/m 13,7 C 21,1 C 21,0 km/h 100,00 %
16.06.2019 12:43 21,5 C 61 % 1019,8 hPa 0,0 l/m 15,7 km/h S-SO 157 1 min 0,000 mm 5,8 UV-I 989 W/m 13,7 C 18,9 C 23,0 km/h 96,15 %
16.06.2019 12:42 21,4 C 61 % 1019,8 hPa 0,0 l/m 12,7 km/h S-SW 198 1 min 0,000 mm 5,8 UV-I 985 W/m 13,6 C 19,5 C 23,0 km/h 100,00 %
16.06.2019 12:41 21,4 C 62 % 1019,9 hPa 0,0 l/m 12,8 km/h S-SW 209 1 min 0,000 mm 5,7 UV-I 973 W/m 13,8 C 19,4 C 21,0 km/h 96,55 %
16.06.2019 12:40 21,3 C 63 % 1019,9 hPa 0,0 l/m 7,8 km/h S-SW 213 1 min 0,000 mm 5,8 UV-I 973 W/m 14,0 C 20,8 C 11,5 km/h 95,83 %
16.06.2019 12:39 21,2 C 62 % 1019,9 hPa 0,0 l/m 8,1 km/h S-SO 157 1 min 0,000 mm 5,8 UV-I 969 W/m 13,6 C 20,6 C 11,5 km/h 100,00 %
16.06.2019 12:38 21,2 C 62 % 1019,9 hPa 0,0 l/m 10,6 km/h SW 217 1 min 0,000 mm 5,7 UV-I 949 W/m 13,6 C 19,8 C 17,2 km/h 95,83 %
16.06.2019 12:37 21,2 C 62 % 1019,9 hPa 0,0 l/m 7,9 km/h S 175 1 min 0,000 mm 5,7 UV-I 934 W/m 13,6 C 20,6 C 15,3 km/h 100,00 %
16.06.2019 12:36 21,1 C 63 % 1019,9 hPa 0,0 l/m 12,1 km/h S 169 1 min 0,000 mm 5,7 UV-I 932 W/m 13,8 C 19,3 C 23,0 km/h 96,67 %
16.06.2019 12:35 21,0 C 63 % 1019,9 hPa 0,0 l/m 14,6 km/h W-SW 257 1 min 0,000 mm 5,7 UV-I 938 W/m 13,7 C 18,6 C 23,0 km/h 100,00 %
16.06.2019 12:34 20,9 C 64 % 1019,9 hPa 0,0 l/m 10,4 km/h S-SO 150 1 min 0,000 mm 5,7 UV-I 948 W/m 13,8 C 19,5 C 15,3 km/h 96,15 %
16.06.2019 12:33 20,9 C 65 % 1019,9 hPa 0,0 l/m 11,9 km/h S-SO 155 1 min 0,000 mm 5,6 UV-I 960 W/m 14,1 C 19,1 C 23,0 km/h 100,00 %
16.06.2019 12:32 20,8 C 64 % 1019,9 hPa 0,0 l/m 10,0 km/h S 174 1 min 0,000 mm 5,4 UV-I 971 W/m 13,7 C 19,5 C 15,3 km/h 95,65 %
16.06.2019 12:31 20,9 C 64 % 1019,9 hPa 0,0 l/m 12,7 km/h S 178 1 min 0,000 mm 3,3 UV-I 970 W/m 13,8 C 18,9 C 24,9 km/h 96,30 %
16.06.2019 12:30 20,9 C 65 % 1019,9 hPa 0,0 l/m 11,2 km/h S-SO 167 1 min 0,000 mm 3,3 UV-I 970 W/m 14,1 C 19,3 C 17,2 km/h 100,00 %
16.06.2019 12:29 20,9 C 65 % 1020,0 hPa 0,0 l/m 9,0 km/h S-SO 168 4 min 0,000 mm 4,8 UV-I 970 W/m 14,1 C 20,0 C 15,3 km/h 97,62 %
16.06.2019 12:25 20,6 C 65 % 1020,0 hPa 0,0 l/m 11,5 km/h S-SW 202 5 min 0,000 mm 5,3 UV-I 970 W/m 13,8 C 18,9 C 21,0 km/h 100,00 %
16.06.2019 12:20 20,8 C 64 % 1020,0 hPa 0,0 l/m 11,5 km/h S-SW 202 0 min 0,000 mm 2,5 UV-I 172 W/m 13,7 C 19,1 C 23,0 km/h 100,00 %
16.06.2019 12:15 21,3 C 63 % 1019,9 hPa 0,0 l/m 13,4 km/h SW 225 0 min 0,000 mm 5,4 UV-I 276 W/m 14,0 C 19,2 C 26,8 km/h 100,00 %
16.06.2019 12:10 21,4 C 64 % 1019,8 hPa 0,0 l/m 9,6 km/h SW 225 5 min 0,000 mm 5,5 UV-I 330 W/m 14,3 C 20,3 C 28,7 km/h 100,00 %
16.06.2019 12:05 21,3 C 63 % 1019,8 hPa 0,0 l/m 11,5 km/h SW 225 5 min 0,000 mm 5,5 UV-I 1153 W/m 14,0 C 19,7 C 19,1 km/h 100,00 %
16.06.2019 12:00 20,9 C 65 % 1019,8 hPa 0,0 l/m 7,7 km/h S-SW 202 0 min 0,406 mm 5,1 UV-I 276 W/m 14,1 C 20,4 C 17,2 km/h 100,00 %
16.06.2019 11:55 20,7 C 64 % 1019,8 hPa 0,0 l/m 9,6 km/h S 180 5 min 0,000 mm 4,6 UV-I 318 W/m 13,6 C 19,5 C 19,1 km/h 100,00 %
16.06.2019 11:50 20,8 C 64 % 1019,8 hPa 0,0 l/m 11,5 km/h S-SW 202 5 min 0,000 mm 4,2 UV-I 318 W/m 13,7 C 19,1 C 28,7 km/h 100,00 %
16.06.2019 11:45 20,8 C 64 % 1019,8 hPa 0,0 l/m 9,6 km/h S-SW 202 5 min 0,000 mm 5,0 UV-I 1048 W/m 13,7 C 19,6 C 19,1 km/h 100,00 %
16.06.2019 11:40 21,2 C 62 % 1019,7 hPa 0,0 l/m 9,6 km/h SW 225 0 min 0,000 mm 2,5 UV-I 206 W/m 13,6 C 20,1 C 23,0 km/h 99,12 %
16.06.2019 11:35 21,1 C 65 % 1019,7 hPa 0,0 l/m 11,5 km/h S-SW 202 5 min 0,000 mm 4,9 UV-I 900 W/m 14,3 C 19,4 C 21,0 km/h 100,00 %
16.06.2019 11:30 20,9 C 64 % 1019,6 hPa 0,0 l/m 13,4 km/h S 180 5 min 0,000 mm 4,8 UV-I 831 W/m 13,8 C 18,7 C 24,9 km/h 100,00 %
16.06.2019 11:25 21,2 C 65 % 1019,6 hPa 0,0 l/m 9,6 km/h SW 225 5 min 0,000 mm 4,8 UV-I 865 W/m 14,4 C 20,1 C 23,0 km/h 98,25 %
16.06.2019 11:20 20,9 C 65 % 1019,6 hPa 0,0 l/m 11,5 km/h S 180 5 min 0,000 mm 4,6 UV-I 812 W/m 14,1 C 19,2 C 23,0 km/h 100,00 %
16.06.2019 11:15 20,9 C 65 % 1019,6 hPa 0,0 l/m 11,5 km/h S-SW 202 5 min 0,000 mm 4,5 UV-I 784 W/m 14,1 C 19,2 C 26,8 km/h 99,12 %
16.06.2019 11:10 20,6 C 66 % 1019,5 hPa 0,0 l/m 11,5 km/h SW 225 5 min 0,000 mm 4,4 UV-I 810 W/m 14,0 C 18,9 C 24,9 km/h 100,00 %
16.06.2019 11:05 20,6 C 66 % 1019,5 hPa 0,0 l/m 13,4 km/h S-SW 202 5 min 0,000 mm 4,2 UV-I 768 W/m 14,0 C 18,4 C 28,7 km/h 97,37 %
16.06.2019 11:00 20,7 C 65 % 1019,5 hPa 0,0 l/m 13,4 km/h S-SW 202 5 min 0,432 mm 4,1 UV-I 770 W/m 13,9 C 18,5 C 26,8 km/h 99,12 %
16.06.2019 10:55 20,8 C 66 % 1019,4 hPa 0,0 l/m 13,4 km/h SW 225 5 min 0,000 mm 4,0 UV-I 758 W/m 14,2 C 18,6 C 26,8 km/h 97,37 %
16.06.2019 10:50 20,8 C 66 % 1019,4 hPa 0,0 l/m 9,6 km/h SW 225 5 min 0,000 mm 4,0 UV-I 779 W/m 14,2 C 19,6 C 21,0 km/h 97,37 %
16.06.2019 10:45 20,8 C 67 % 1019,3 hPa 0,0 l/m 7,7 km/h SW 225 5 min 0,000 mm 4,0 UV-I 809 W/m 14,4 C 20,3 C 19,1 km/h 97,37 %
16.06.2019 10:40 20,4 C 67 % 1019,3 hPa 0,0 l/m 9,6 km/h S 180 5 min 0,000 mm 3,7 UV-I 717 W/m 14,1 C 19,2 C 21,0 km/h 97,37 %
16.06.2019 10:35 20,5 C 65 % 1019,3 hPa 0,0 l/m 13,4 km/h SW 225 5 min 0,000 mm 3,7 UV-I 731 W/m 13,7 C 18,2 C 26,8 km/h 97,37 %
16.06.2019 10:30 20,4 C 67 % 1019,2 hPa 0,0 l/m 9,6 km/h S 180 5 min 0,000 mm 3,6 UV-I 745 W/m 14,1 C 19,2 C 21,0 km/h 98,25 %
16.06.2019 10:25 20,3 C 67 % 1019,3 hPa 0,0 l/m 9,6 km/h S-SW 202 5 min 0,000 mm 3,5 UV-I 719 W/m 14,0 C 19,1 C 21,0 km/h 97,37 %
16.06.2019 10:20 20,0 C 66 % 1019,3 hPa 0,0 l/m 11,5 km/h S 180 5 min 0,000 mm 3,4 UV-I 696 W/m 13,4 C 18,2 C 24,9 km/h 97,37 %
16.06.2019 10:15 20,2 C 67 % 1019,3 hPa 0,0 l/m 11,5 km/h S-SW 202 5 min 0,000 mm 3,2 UV-I 657 W/m 13,9 C 18,4 C 19,1 km/h 97,37 %
16.06.2019 10:10 20,1 C 68 % 1019,3 hPa 0,0 l/m 7,7 km/h S-SW 202 5 min 0,000 mm 3,2 UV-I 642 W/m 14,0 C 19,6 C 21,0 km/h 99,12 %
16.06.2019 10:05 19,8 C 68 % 1019,2 hPa 0,0 l/m 7,7 km/h S 180 5 min 0,000 mm 3,1 UV-I 624 W/m 13,7 C 19,3 C 19,1 km/h 96,49 %
16.06.2019 10:00 19,8 C 69 % 1019,2 hPa 0,0 l/m 9,6 km/h SW 225 5 min 0,330 mm 3,0 UV-I 613 W/m 13,9 C 18,6 C 19,1 km/h 97,37 %
16.06.2019 09:55 19,7 C 68 % 1019,1 hPa 0,0 l/m 9,6 km/h SW 225 5 min 0,000 mm 2,9 UV-I 605 W/m 13,6 C 18,4 C 17,2 km/h 98,25 %
16.06.2019 09:50 19,7 C 69 % 1019,1 hPa 0,0 l/m 9,6 km/h S-SW 202 5 min 0,000 mm 2,8 UV-I 591 W/m 13,8 C 18,4 C 21,0 km/h 98,25 %
16.06.2019 09:45 19,4 C 70 % 1019,2 hPa 0,0 l/m 7,7 km/h SW 225 5 min 0,000 mm 2,7 UV-I 578 W/m 13,8 C 18,8 C 13,4 km/h 97,37 %
16.06.2019 09:40 19,3 C 70 % 1019,0 hPa 0,0 l/m 9,6 km/h SW 225 5 min 0,000 mm 2,6 UV-I 564 W/m 13,7 C 18,0 C 17,2 km/h 97,37 %
16.06.2019 09:35 19,2 C 70 % 1019,1 hPa 0,0 l/m 7,7 km/h S 180 5 min 0,000 mm 2,5 UV-I 554 W/m 13,6 C 18,6 C 23,0 km/h 98,25 %
16.06.2019 09:30 19,2 C 72 % 1019,2 hPa 0,0 l/m 9,6 km/h SW 225 5 min 0,000 mm 2,4 UV-I 541 W/m 14,0 C 17,9 C 17,2 km/h 97,37 %
16.06.2019 09:25 19,0 C 72 % 1019,3 hPa 0,0 l/m 11,5 km/h SW 225 5 min 0,000 mm 2,3 UV-I 526 W/m 13,8 C 17,0 C 21,0 km/h 98,25 %
16.06.2019 09:20 18,9 C 72 % 1019,2 hPa 0,0 l/m 9,6 km/h SW 225 5 min 0,000 mm 2,2 UV-I 513 W/m 13,7 C 17,6 C 21,0 km/h 98,25 %
16.06.2019 09:15 18,8 C 72 % 1019,2 hPa 0,0 l/m 9,6 km/h SW 225 5 min 0,000 mm 2,1 UV-I 499 W/m 13,6 C 17,5 C 23,0 km/h 97,37 %
16.06.2019 09:10 18,7 C 73 % 1019,1 hPa 0,0 l/m 7,7 km/h S 180 5 min 0,000 mm 2,0 UV-I 489 W/m 13,8 C 18,1 C 15,3 km/h 97,37 %
16.06.2019 09:05 18,7 C 73 % 1019,1 hPa 0,0 l/m 9,6 km/h S-SO 157 5 min 0,000 mm 1,9 UV-I 476 W/m 13,8 C 17,4 C 17,2 km/h 98,25 %
16.06.2019 09:00 18,6 C 73 % 1019,0 hPa 0,0 l/m 7,7 km/h S-SO 157 5 min 0,229 mm 1,9 UV-I 464 W/m 13,7 C 18,0 C 19,1 km/h 98,25 %
16.06.2019 08:55 18,4 C 73 % 1018,9 hPa 0,0 l/m 7,7 km/h S-SW 202 5 min 0,000 mm 1,8 UV-I 450 W/m 13,5 C 17,8 C 17,2 km/h 97,37 %
16.06.2019 08:50 18,3 C 73 % 1018,9 hPa 0,0 l/m 9,6 km/h SW 225 5 min 0,000 mm 1,7 UV-I 436 W/m 13,4 C 16,9 C 21,0 km/h 96,49 %
16.06.2019 08:45 18,4 C 72 % 1018,9 hPa 0,0 l/m 7,7 km/h SW 225 5 min 0,000 mm 1,6 UV-I 424 W/m 13,3 C 17,8 C 19,1 km/h 97,37 %
16.06.2019 08:40 18,4 C 74 % 1018,8 hPa 0,0 l/m 3,8 km/h SW 225 5 min 0,000 mm 1,6 UV-I 408 W/m 13,7 C 18,4 C 9,6 km/h 97,37 %
16.06.2019 08:35 18,2 C 74 % 1018,7 hPa 0,0 l/m 5,7 km/h S-SW 202 5 min 0,000 mm 1,5 UV-I 396 W/m 13,5 C 18,2 C 13,4 km/h 98,25 %
16.06.2019 08:30 17,9 C 74 % 1018,7 hPa 0,0 l/m 7,7 km/h S 180 5 min 0,000 mm 1,4 UV-I 385 W/m 13,2 C 17,3 C 17,2 km/h 97,37 %
16.06.2019 08:25 17,8 C 74 % 1018,5 hPa 0,0 l/m 9,6 km/h S 180 5 min 0,000 mm 1,3 UV-I 371 W/m 13,1 C 16,4 C 19,1 km/h 97,37 %
16.06.2019 08:20 17,9 C 75 % 1018,5 hPa 0,0 l/m 5,7 km/h S-SW 202 5 min 0,000 mm 1,3 UV-I 359 W/m 13,4 C 17,9 C 21,0 km/h 98,25 %
16.06.2019 08:15 17,7 C 76 % 1018,4 hPa 0,0 l/m 7,7 km/h SW 225 5 min 0,000 mm 1,2 UV-I 345 W/m 13,4 C 17,1 C 15,3 km/h 98,25 %
16.06.2019 08:10 17,6 C 76 % 1018,4 hPa 0,0 l/m 7,7 km/h SW 225 5 min 0,000 mm 1,1 UV-I 332 W/m 13,3 C 17,0 C 17,2 km/h 100,00 %
16.06.2019 08:05 17,4 C 78 % 1018,4 hPa 0,0 l/m 5,7 km/h S-SW 202 5 min 0,000 mm 1,1 UV-I 318 W/m 13,5 C 17,4 C 11,5 km/h 100,00 %
16.06.2019 08:00 17,2 C 78 % 1018,4 hPa 0,0 l/m 9,6 km/h S-SW 202 5 min 0,127 mm 1,0 UV-I 302 W/m 13,3 C 15,7 C 26,8 km/h 100,00 %
16.06.2019 07:55 17,2 C 79 % 1018,3 hPa 0,0 l/m 9,6 km/h S-SW 202 5 min 0,000 mm 0,9 UV-I 290 W/m 13,5 C 15,7 C 23,0 km/h 100,00 %
16.06.2019 07:50 17,0 C 80 % 1018,3 hPa 0,0 l/m 5,7 km/h S-SW 202 0 min 0,000 mm 0,9 UV-I 274 W/m 13,5 C 17,0 C 13,4 km/h 100,00 %
16.06.2019 07:45 16,9 C 81 % 1018,3 hPa 0,0 l/m 5,7 km/h S-SW 202 0 min 0,000 mm 0,8 UV-I 262 W/m 13,6 C 16,9 C 13,4 km/h 100,00 %
16.06.2019 07:40 16,7 C 82 % 1018,3 hPa 0,0 l/m 7,7 km/h S-SW 202 0 min 0,000 mm 0,7 UV-I 250 W/m 13,6 C 16,0 C 15,3 km/h 100,00 %
16.06.2019 07:35 16,6 C 83 % 1018,3 hPa 0,0 l/m 7,7 km/h S-SW 202 0 min 0,000 mm 0,7 UV-I 244 W/m 13,7 C 15,9 C 17,2 km/h 99,12 %
16.06.2019 07:30 16,4 C 84 % 1018,3 hPa 0,0 l/m 5,7 km/h S 180 0 min 0,000 mm 0,6 UV-I 243 W/m 13,7 C 16,4 C 17,2 km/h 100,00 %
16.06.2019 07:25 16,2 C 86 % 1018,4 hPa 0,0 l/m 5,7 km/h S-SW 202 0 min 0,000 mm 0,5 UV-I 229 W/m 13,9 C 16,2 C 15,3 km/h 100,00 %
16.06.2019 07:20 16,1 C 87 % 1018,3 hPa 0,0 l/m 7,7 km/h S-SW 202 0 min 0,000 mm 0,5 UV-I 220 W/m 13,9 C 15,4 C 15,3 km/h 100,00 %
16.06.2019 07:15 15,8 C 88 % 1018,3 hPa 0,0 l/m 5,7 km/h S-SW 202 0 min 0,000 mm 0,0 UV-I 174 W/m 13,8 C 15,8 C 11,5 km/h 100,00 %
16.06.2019 07:10 15,7 C 89 % 1018,3 hPa 0,0 l/m 3,8 km/h S 180 0 min 0,000 mm 0,0 UV-I 76 W/m 13,9 C 15,7 C 11,5 km/h 100,00 %
16.06.2019 07:05 15,6 C 90 % 1018,3 hPa 0,0 l/m 3,8 km/h S 180 0 min 0,000 mm 0,0 UV-I 88 W/m 14,0 C 15,6 C 11,5 km/h 100,00 %
16.06.2019 07:00 15,3 C 91 % 1018,3 hPa 0,0 l/m 3,8 km/h S 180 0 min 0,025 mm 0,0 UV-I 88 W/m 13,8 C 15,3 C 9,6 km/h 100,00 %
16.06.2019 06:55 15,2 C 91 % 1018,3 hPa 0,0 l/m 3,8 km/h S-SW 202 0 min 0,000 mm 0,0 UV-I 77 W/m 13,7 C 15,2 C 9,6 km/h 100,00 %
16.06.2019 06:50 15,1 C 92 % 1018,3 hPa 0,0 l/m 3,8 km/h S-SW 202 0 min 0,000 mm 0,0 UV-I 60 W/m 13,8 C 15,1 C 9,6 km/h 100,00 %
16.06.2019 06:45 15,0 C 93 % 1018,3 hPa 0,0 l/m 3,8 km/h S 180 0 min 0,000 mm 0,0 UV-I 47 W/m 13,9 C 15,0 C 11,5 km/h 100,00 %
16.06.2019 06:40 14,8 C 93 % 1018,2 hPa 0,0 l/m 3,8 km/h S-SW 202 0 min 0,000 mm 0,0 UV-I 56 W/m 13,7 C 14,8 C 11,5 km/h 99,12 %
16.06.2019 06:35 14,7 C 93 % 1018,2 hPa 0,0 l/m 3,8 km/h S-SW 202 0 min 0,000 mm 0,0 UV-I 53 W/m 13,6 C 14,7 C 9,6 km/h 100,00 %
16.06.2019 06:30 14,6 C 93 % 1018,2 hPa 0,0 l/m 3,8 km/h S 180 0 min 0,000 mm 0,0 UV-I 47 W/m 13,5 C 14,6 C 9,6 km/h 100,00 %
16.06.2019 06:25 14,5 C 94 % 1018,2 hPa 0,0 l/m 1,9 km/h S 180 0 min 0,000 mm 0,0 UV-I 46 W/m 13,5 C 14,5 C 7,7 km/h 99,12 %
16.06.2019 06:20 14,4 C 94 % 1018,1 hPa 0,0 l/m 1,9 km/h S 180 0 min 0,000 mm 0,0 UV-I 35 W/m 13,4 C 14,4 C 5,7 km/h 100,00 %
16.06.2019 06:15 14,4 C 94 % 1018,1 hPa 0,0 l/m 1,9 km/h S 180 0 min 0,000 mm 0,0 UV-I 23 W/m 13,4 C 14,4 C 5,7 km/h 100,00 %
16.06.2019 06:10 14,4 C 94 % 1018,1 hPa 0,0 l/m 1,9 km/h S 180 0 min 0,000 mm 0,0 UV-I 14 W/m 13,4 C 14,4 C 5,7 km/h 100,00 %
16.06.2019 06:05 14,4 C 94 % 1018,1 hPa 0,0 l/m 1,9 km/h S 180 0 min 0,000 mm 0,0 UV-I 12 W/m 13,4 C 14,4 C 5,7 km/h 100,00 %
16.06.2019 06:00 14,3 C 94 % 1018,1 hPa 0,0 l/m 3,8 km/h S 180 0 min 0,000 mm 0,0 UV-I 11 W/m 13,3 C 14,3 C 9,6 km/h 100,00 %
16.06.2019 05:55 14,2 C 94 % 1018,0 hPa 0,0 l/m 3,8 km/h S 180 0 min 0,000 mm 0,0 UV-I 9 W/m 13,2 C 14,2 C 7,7 km/h 100,00 %
16.06.2019 05:50 13,9 C 94 % 1018,0 hPa 0,0 l/m 1,9 km/h S-SW 202 0 min 0,000 mm 0,0 UV-I 9 W/m 12,9 C 13,9 C 5,7 km/h 100,00 %
16.06.2019 05:45 13,8 C 94 % 1018,0 hPa 0,0 l/m 0,0 km/h NW 315 0 min 0,000 mm 0,0 UV-I 7 W/m 12,9 C 13,8 C 5,7 km/h 100,00 %
16.06.2019 05:40 13,8 C 94 % 1018,0 hPa 0,0 l/m 0,0 km/h NW 315 0 min 0,000 mm 0,0 UV-I 7 W/m 12,9 C 13,8 C 1,9 km/h 100,00 %
16.06.2019 05:35 13,9 C 94 % 1017,9 hPa 0,0 l/m 0,0 km/h NW 315 0 min 0,000 mm 0,0 UV-I 5 W/m 12,9 C 13,9 C 1,9 km/h 100,00 %
16.06.2019 05:30 13,9 C 94 % 1018,0 hPa 0,0 l/m 0,0 km/h N 0 0 min 0,000 mm 0,0 UV-I 0 W/m 12,9 C 13,9 C 0,0 km/h 100,00 %
16.06.2019 05:25 13,9 C 94 % 1017,9 hPa 0,0 l/m 0,0 km/h NW 315 0 min 0,000 mm 0,0 UV-I 0 W/m 12,9 C 13,9 C 1,9 km/h 100,00 %
16.06.2019 05:20 13,8 C 94 % 1017,8 hPa 0,0 l/m 0,0 km/h NW 315 0 min 0,000 mm 0,0 UV-I 0 W/m 12,9 C 13,8 C 1,9 km/h 100,00 %
16.06.2019 05:15 13,8 C 94 % 1017,8 hPa 0,0 l/m 0,0 km/h NW 315 0 min 0,000 mm 0,0 UV-I 0 W/m 12,9 C 13,8 C 1,9 km/h 100,00 %
16.06.2019 05:10 13,8 C 94 % 1017,7 hPa 0,0 l/m 0,0 km/h N 0 0 min 0,000 mm 0,0 UV-I 0 W/m 12,9 C 13,8 C 0,0 km/h 99,12 %
16.06.2019 05:05 13,7 C 94 % 1017,7 hPa 0,0 l/m 0,0 km/h NW 315 0 min 0,000 mm 0,0 UV-I 0 W/m 12,8 C 13,7 C 1,9 km/h 100,00 %
16.06.2019 05:00 13,7 C 93 % 1017,6 hPa 0,0 l/m 0,0 km/h NW 315 0 min 0,000 mm 0,0 UV-I 0 W/m 12,6 C 13,7 C 1,9 km/h 100,00 %
16.06.2019 04:55 13,7 C 93 % 1017,6 hPa 0,0 l/m 0,0 km/h NW 315 0 min 0,000 mm 0,0 UV-I 0 W/m 12,6 C 13,7 C 1,9 km/h 100,00 %
16.06.2019 04:50 13,7 C 93 % 1017,5 hPa 0,0 l/m 0,0 km/h N 0 0 min 0,000 mm 0,0 UV-I 0 W/m 12,6 C 13,7 C 0,0 km/h 100,00 %
16.06.2019 04:45 13,7 C 93 % 1017,5 hPa 0,0 l/m 0,0 km/h N 0 0 min 0,000 mm 0,0 UV-I 0 W/m 12,6 C 13,7 C 0,0 km/h 100,00 %
16.06.2019 04:40 13,8 C 93 % 1017,4 hPa 0,0 l/m 0,0 km/h N 0 0 min 0,000 mm 0,0 UV-I 0 W/m 12,7 C 13,8 C 0,0 km/h 100,00 %
16.06.2019 04:35 13,9 C 93 % 1017,4 hPa 0,0 l/m 0,0 km/h N 0 0 min 0,000 mm 0,0 UV-I 0 W/m 12,8 C 13,9 C 0,0 km/h 100,00 %
16.06.2019 04:30 14,2 C 93 % 1017,4 hPa 0,0 l/m 0,0 km/h NW 315 0 min 0,000 mm 0,0 UV-I 0 W/m 13,1 C 14,2 C 3,8 km/h 100,00 %
16.06.2019 04:25 14,2 C 93 % 1017,4 hPa 0,0 l/m 0,0 km/h NW 315 0 min 0,000 mm 0,0 UV-I 0 W/m 13,1 C 14,2 C 1,9 km/h 99,12 %
16.06.2019 04:20 14,2 C 93 % 1017,4 hPa 0,0 l/m 0,0 km/h NW 315 0 min 0,000 mm 0,0 UV-I 0 W/m 13,1 C 14,2 C 1,9 km/h 100,00 %
16.06.2019 04:15 14,1 C 93 % 1017,3 hPa 0,0 l/m 0,0 km/h N 0 0 min 0,000 mm 0,0 UV-I 0 W/m 13,0 C 14,1 C 0,0 km/h 98,25 %
16.06.2019 04:10 14,1 C 93 % 1017,3 hPa 0,0 l/m 0,0 km/h NW 315 0 min 0,000 mm 0,0 UV-I 0 W/m 13,0 C 14,1 C 1,9 km/h 100,00 %
16.06.2019 04:05 14,1 C 93 % 1017,2 hPa 0,0 l/m 0,0 km/h NW 315 0 min 0,000 mm 0,0 UV-I 0 W/m 13,0 C 14,1 C 1,9 km/h 97,37 %
16.06.2019 04:00 14,2 C 93 % 1017,2 hPa 0,0 l/m 0,0 km/h NW 315 0 min 0,000 mm 0,0 UV-I 0 W/m 13,1 C 14,2 C 1,9 km/h 97,37 %
16.06.2019 03:55 14,2 C 93 % 1017,3 hPa 0,0 l/m 0,0 km/h N 0 0 min 0,000 mm 0,0 UV-I 0 W/m 13,1 C 14,2 C 0,0 km/h 99,12 %
16.06.2019 03:50 14,3 C 93 % 1017,3 hPa 0,0 l/m 0,0 km/h NW 315 0 min 0,000 mm 0,0 UV-I 0 W/m 13,2 C 14,3 C 1,9 km/h 97,37 %
16.06.2019 03:45 14,5 C 93 % 1017,3 hPa 0,0 l/m 0,0 km/h NW 315 0 min 0,000 mm 0,0 UV-I 0 W/m 13,4 C 14,5 C 1,9 km/h 97,37 %
16.06.2019 03:40 14,5 C 93 % 1017,3 hPa 0,0 l/m 0,0 km/h N 0 0 min 0,000 mm 0,0 UV-I 0 W/m 13,4 C 14,5 C 0,0 km/h 98,25 %
16.06.2019 03:35 14,6 C 93 % 1017,3 hPa 0,0 l/m 0,0 km/h N 0 0 min 0,000 mm 0,0 UV-I 0 W/m 13,5 C 14,6 C 0,0 km/h 97,37 %
16.06.2019 03:30 14,6 C 93 % 1017,2 hPa 0,0 l/m 0,0 km/h N 0 0 min 0,000 mm 0,0 UV-I 0 W/m 13,5 C 14,6 C 0,0 km/h 98,25 %
16.06.2019 03:25 14,6 C 92 % 1017,2 hPa 0,0 l/m 0,0 km/h N 0 0 min 0,000 mm 0,0 UV-I 0 W/m 13,3 C 14,6 C 0,0 km/h 97,37 %
16.06.2019 03:20 14,7 C 92 % 1017,3 hPa 0,0 l/m 0,0 km/h N 0 0 min 0,000 mm 0,0 UV-I 0 W/m 13,4 C 14,7 C 0,0 km/h 98,25 %
16.06.2019 03:15 14,8 C 92 % 1017,3 hPa 0,0 l/m 0,0 km/h N 0 0 min 0,000 mm 0,0 UV-I 0 W/m 13,5 C 14,8 C 0,0 km/h 97,37 %
16.06.2019 03:10 14,8 C 92 % 1017,2 hPa 0,0 l/m 0,0 km/h N 0 0 min 0,000 mm 0,0 UV-I 0 W/m 13,5 C 14,8 C 0,0 km/h 98,25 %
16.06.2019 03:05 14,8 C 92 % 1017,2 hPa 0,0 l/m 0,0 km/h N 0 0 min 0,000 mm 0,0 UV-I 0 W/m 13,5 C 14,8 C 0,0 km/h 98,25 %
16.06.2019 03:00 14,9 C 92 % 1017,3 hPa 0,0 l/m 0,0 km/h N 0 0 min 0,000 mm 0,0 UV-I 0 W/m 13,6 C 14,9 C 0,0 km/h 97,37 %
16.06.2019 02:55 14,9 C 92 % 1017,3 hPa 0,0 l/m 0,0 km/h N 0 0 min 0,000 mm 0,0 UV-I 0 W/m 13,6 C 14,9 C 0,0 km/h 97,37 %
16.06.2019 02:50 15,1 C 92 % 1017,4 hPa 0,0 l/m 0,0 km/h N 0 0 min 0,000 mm 0,0 UV-I 0 W/m 13,8 C 15,1 C 0,0 km/h 97,37 %
16.06.2019 02:45 15,0 C 92 % 1017,3 hPa 0,0 l/m 0,0 km/h N 0 0 min 0,000 mm 0,0 UV-I 0 W/m 13,7 C 15,0 C 0,0 km/h 100,00 %
16.06.2019 02:40 15,1 C 92 % 1017,3 hPa 0,0 l/m 0,0 km/h N 0 0 min 0,000 mm 0,0 UV-I 0 W/m 13,8 C 15,1 C 0,0 km/h 100,00 %
16.06.2019 02:35 15,1 C 92 % 1017,3 hPa 0,0 l/m 0,0 km/h N 0 0 min 0,000 mm 0,0 UV-I 0 W/m 13,8 C 15,1 C 0,0 km/h 99,12 %
16.06.2019 02:30 15,0 C 92 % 1017,2 hPa 0,0 l/m 0,0 km/h N 0 0 min 0,000 mm 0,0 UV-I 0 W/m 13,7 C 15,0 C 0,0 km/h 100,00 %
16.06.2019 02:25 15,1 C 92 % 1017,3 hPa 0,0 l/m 0,0 km/h NW 315 0 min 0,000 mm 0,0 UV-I 0 W/m 13,8 C 15,1 C 1,9 km/h 100,00 %
16.06.2019 02:20 15,1 C 91 % 1017,3 hPa 0,0 l/m 0,0 km/h NW 315 0 min 0,000 mm 0,0 UV-I 0 W/m 13,6 C 15,1 C 1,9 km/h 100,00 %
16.06.2019 02:15 15,2 C 91 % 1017,3 hPa 0,0 l/m 0,0 km/h NW 315 0 min 0,000 mm 0,0 UV-I 0 W/m 13,7 C 15,2 C 1,9 km/h 100,00 %
16.06.2019 02:10 15,3 C 91 % 1017,3 hPa 0,0 l/m 0,0 km/h N 0 0 min 0,000 mm 0,0 UV-I 0 W/m 13,8 C 15,3 C 0,0 km/h 100,00 %
16.06.2019 02:05 15,3 C 91 % 1017,4 hPa 0,0 l/m 0,0 km/h NW 315 0 min 0,000 mm 0,0 UV-I 0 W/m 13,8 C 15,3 C 1,9 km/h 100,00 %
16.06.2019 02:00 15,3 C 92 % 1017,4 hPa 0,0 l/m 0,0 km/h N 0 0 min 0,000 mm 0,0 UV-I 0 W/m 14,0 C 15,3 C 0,0 km/h 100,00 %
16.06.2019 01:55 15,2 C 91 % 1017,4 hPa 0,0 l/m 0,0 km/h NW 315 0 min 0,000 mm 0,0 UV-I 0 W/m 13,7 C 15,2 C 1,9 km/h 100,00 %
16.06.2019 01:50 15,2 C 91 % 1017,4 hPa 0,0 l/m 0,0 km/h N 0 0 min 0,000 mm 0,0 UV-I 0 W/m 13,7 C 15,2 C 0,0 km/h 100,00 %
16.06.2019 01:45 15,2 C 91 % 1017,4 hPa 0,0 l/m 0,0 km/h N 0 0 min 0,000 mm 0,0 UV-I 0 W/m 13,7 C 15,2 C 0,0 km/h 100,00 %
16.06.2019 01:40 15,2 C 91 % 1017,3 hPa 0,0 l/m 0,0 km/h N 0 0 min 0,000 mm 0,0 UV-I 0 W/m 13,7 C 15,2 C 0,0 km/h 100,00 %
16.06.2019 01:35 15,3 C 90 % 1017,2 hPa 0,0 l/m 0,0 km/h NW 315 0 min 0,000 mm 0,0 UV-I 0 W/m 13,7 C 15,3 C 1,9 km/h 100,00 %
16.06.2019 01:30 15,4 C 90 % 1017,1 hPa 0,0 l/m 0,0 km/h N 0 0 min 0,000 mm 0,0 UV-I 0 W/m 13,8 C 15,4 C 0,0 km/h 100,00 %
16.06.2019 01:25 15,4 C 90 % 1017,1 hPa 0,0 l/m 0,0 km/h N 0 0 min 0,000 mm 0,0 UV-I 0 W/m 13,8 C 15,4 C 0,0 km/h 100,00 %
16.06.2019 01:20 15,4 C 90 % 1017,1 hPa 0,0 l/m 0,0 km/h N 0 0 min 0,000 mm 0,0 UV-I 0 W/m 13,8 C 15,4 C 0,0 km/h 100,00 %
16.06.2019 01:15 15,4 C 90 % 1017,1 hPa 0,0 l/m 0,0 km/h N 0 0 min 0,000 mm 0,0 UV-I 0 W/m 13,8 C 15,4 C 0,0 km/h 100,00 %
16.06.2019 01:10 15,4 C 90 % 1017,1 hPa 0,0 l/m 0,0 km/h N 0 0 min 0,000 mm 0,0 UV-I 0 W/m 13,8 C 15,4 C 0,0 km/h 100,00 %
16.06.2019 01:05 15,3 C 89 % 1017,0 hPa 0,0 l/m 0,0 km/h NW 315 0 min 0,000 mm 0,0 UV-I 0 W/m 13,5 C 15,3 C 1,9 km/h 100,00 %
16.06.2019 01:00 15,3 C 89 % 1016,9 hPa 0,0 l/m 0,0 km/h NW 315 0 min 0,000 mm 0,0 UV-I 0 W/m 13,5 C 15,3 C 1,9 km/h 100,00 %
16.06.2019 00:55 15,4 C 89 % 1016,9 hPa 0,0 l/m 0,0 km/h NW 315 0 min 0,000 mm 0,0 UV-I 0 W/m 13,6 C 15,4 C 1,9 km/h 100,00 %
16.06.2019 00:50 15,4 C 89 % 1016,9 hPa 0,0 l/m 0,0 km/h N 0 0 min 0,000 mm 0,0 UV-I 0 W/m 13,6 C 15,4 C 0,0 km/h 100,00 %
16.06.2019 00:45 15,4 C 89 % 1016,9 hPa 0,0 l/m 0,0 km/h NW 315 0 min 0,000 mm 0,0 UV-I 0 W/m 13,6 C 15,4 C 1,9 km/h 100,00 %
16.06.2019 00:40 15,4 C 88 % 1016,8 hPa 0,0 l/m 0,0 km/h N 0 0 min 0,000 mm 0,0 UV-I 0 W/m 13,4 C 15,4 C 0,0 km/h 100,00 %
16.06.2019 00:35 15,6 C 88 % 1016,6 hPa 0,0 l/m 0,0 km/h N 0 0 min 0,000 mm 0,0 UV-I 0 W/m 13,6 C 15,6 C 0,0 km/h 100,00 %
16.06.2019 00:30 15,6 C 87 % 1016,6 hPa 0,0 l/m 0,0 km/h NW 315 0 min 0,000 mm 0,0 UV-I 0 W/m 13,4 C 15,6 C 1,9 km/h 100,00 %
16.06.2019 00:25 15,7 C 87 % 1016,5 hPa 0,0 l/m 0,0 km/h N 0 0 min 0,000 mm 0,0 UV-I 0 W/m 13,5 C 15,7 C 0,0 km/h 100,00 %
16.06.2019 00:20 15,8 C 87 % 1016,5 hPa 0,0 l/m 0,0 km/h N 0 0 min 0,000 mm 0,0 UV-I 0 W/m 13,6 C 15,8 C 0,0 km/h 100,00 %
16.06.2019 00:15 15,9 C 86 % 1016,6 hPa 0,0 l/m 0,0 km/h N 0 0 min 0,000 mm 0,0 UV-I 0 W/m 13,6 C 15,9 C 0,0 km/h 100,00 %
16.06.2019 00:10 16,1 C 86 % 1016,5 hPa 0,0 l/m 0,0 km/h N 0 0 min 0,000 mm 0,0 UV-I 0 W/m 13,8 C 16,1 C 0,0 km/h 100,00 %
16.06.2019 00:05 16,2 C 85 % 1016,5 hPa 0,0 l/m 0,0 km/h N 0 0 min 0,000 mm 0,0 UV-I 0 W/m 13,7 C 16,2 C 0,0 km/h 96,49 %
16.06.2019 00:00 16,2 C 85 % 1016,5 hPa 0,0 l/m 0,0 km/h N 0 0 min 0,025 mm 0,0 UV-I 0 W/m 13,7 C 16,2 C 0,0 km/h 98,25 %
15.06.2019 23:55 16,3 C 84 % 1016,5 hPa 0,0 l/m 0,0 km/h NW 315 0 min 0,000 mm 0,0 UV-I 0 W/m 13,6 C 16,3 C 1,9 km/h 97,37 %
15.06.2019 23:50 16,3 C 84 % 1016,5 hPa 0,0 l/m 0,0 km/h NW 315 0 min 0,000 mm 0,0 UV-I 0 W/m 13,6 C 16,3 C 1,9 km/h 98,25 %
15.06.2019 23:45 16,6 C 83 % 1016,5 hPa 0,0 l/m 0,0 km/h NW 315 0 min 0,000 mm 0,0 UV-I 0 W/m 13,7 C 16,6 C 1,9 km/h 97,37 %
15.06.2019 23:40 16,8 C 82 % 1016,4 hPa 0,0 l/m 0,0 km/h NW 315 0 min 0,000 mm 0,0 UV-I 0 W/m 13,7 C 16,8 C 1,9 km/h 98,25 %
15.06.2019 23:35 17,1 C 82 % 1016,4 hPa 0,0 l/m 0,0 km/h NW 315 0 min 0,000 mm 0,0 UV-I 0 W/m 14,0 C 17,1 C 3,8 km/h 97,37 %
15.06.2019 23:30 17,2 C 81 % 1016,2 hPa 0,0 l/m 0,0 km/h NW 315 0 min 0,000 mm 0,0 UV-I 0 W/m 13,9 C 17,2 C 1,9 km/h 98,25 %
15.06.2019 23:25 17,4 C 80 % 1016,3 hPa 0,0 l/m 0,0 km/h NW 315 0 min 0,000 mm 0,0 UV-I 0 W/m 13,9 C 17,4 C 3,8 km/h 97,37 %
15.06.2019 23:20 17,6 C 80 % 1016,2 hPa 0,0 l/m 1,9 km/h NW 315 0 min 0,000 mm 0,0 UV-I 0 W/m 14,1 C 17,6 C 3,8 km/h 97,37 %
15.06.2019 23:15 17,7 C 79 % 1016,2 hPa 0,0 l/m 1,9 km/h NW 315 0 min 0,000 mm 0,0 UV-I 0 W/m 14,0 C 17,7 C 7,7 km/h 99,12 %
15.06.2019 23:10 17,8 C 78 % 1016,1 hPa 0,0 l/m 1,9 km/h NW 315 0 min 0,000 mm 0,0 UV-I 0 W/m 13,9 C 17,8 C 5,7 km/h 97,37 %
15.06.2019 23:05 17,8 C 78 % 1016,1 hPa 0,0 l/m 1,9 km/h NW 315 0 min 0,000 mm 0,0 UV-I 0 W/m 13,9 C 17,8 C 7,7 km/h 97,37 %
15.06.2019 23:00 17,9 C 77 % 1016,0 hPa 0,0 l/m 1,9 km/h N-NW 337 0 min 0,025 mm 0,0 UV-I 0 W/m 13,8 C 17,9 C 5,7 km/h 97,37 %
15.06.2019 22:55 18,1 C 76 % 1015,9 hPa 0,0 l/m 1,9 km/h NW 315 0 min 0,000 mm 0,0 UV-I 0 W/m 13,8 C 18,1 C 7,7 km/h 97,37 %
15.06.2019 22:50 18,1 C 75 % 1015,8 hPa 0,0 l/m 3,8 km/h W-NW 292 0 min 0,000 mm 0,0 UV-I 0 W/m 13,6 C 18,1 C 13,4 km/h 98,25 %
15.06.2019 22:45 18,2 C 74 % 1015,7 hPa 0,0 l/m 5,7 km/h W-NW 292 0 min 0,000 mm 0,0 UV-I 0 W/m 13,5 C 18,2 C 15,3 km/h 98,25 %
15.06.2019 22:40 18,4 C 73 % 1015,7 hPa 0,0 l/m 7,7 km/h W-NW 292 0 min 0,000 mm 0,0 UV-I 0 W/m 13,5 C 17,8 C 17,2 km/h 100,00 %
15.06.2019 22:35 18,7 C 71 % 1015,8 hPa 0,0 l/m 5,7 km/h W-NW 292 0 min 0,000 mm 0,0 UV-I 0 W/m 13,3 C 18,7 C 17,2 km/h 100,00 %
15.06.2019 22:30 18,8 C 71 % 1015,7 hPa 0,0 l/m 3,8 km/h W-NW 292 0 min 0,000 mm 0,0 UV-I 0 W/m 13,4 C 18,8 C 15,3 km/h 100,00 %
15.06.2019 22:25 18,8 C 70 % 1015,7 hPa 0,0 l/m 1,9 km/h W-NW 292 0 min 0,000 mm 0,0 UV-I 0 W/m 13,2 C 18,8 C 9,6 km/h 100,00 %
15.06.2019 22:20 19,0 C 70 % 1015,6 hPa 0,0 l/m 0,0 km/h W-NW 292 0 min 0,000 mm 0,0 UV-I 0 W/m 13,4 C 19,0 C 5,7 km/h 100,00 %
15.06.2019 22:15 19,2 C 70 % 1015,7 hPa 0,0 l/m 0,0 km/h W-NW 292 0 min 0,000 mm 0,0 UV-I 0 W/m 13,6 C 19,2 C 1,9 km/h 100,00 %
15.06.2019 22:10 19,3 C 70 % 1015,7 hPa 0,0 l/m 0,0 km/h W-NW 292 0 min 0,000 mm 0,0 UV-I 0 W/m 13,7 C 19,3 C 1,9 km/h 100,00 %
15.06.2019 22:05 19,4 C 69 % 1015,5 hPa 0,0 l/m 0,0 km/h W-NW 292 0 min 0,000 mm 0,0 UV-I 0 W/m 13,6 C 19,4 C 5,7 km/h 100,00 %
15.06.2019 22:00 19,6 C 68 % 1015,5 hPa 0,0 l/m 0,0 km/h W-NW 292 0 min 0,025 mm 0,0 UV-I 0 W/m 13,5 C 19,6 C 1,9 km/h 98,25 %
15.06.2019 21:55 19,8 C 68 % 1015,4 hPa 0,0 l/m 0,0 km/h W-NW 292 0 min 0,000 mm 0,0 UV-I 5 W/m 13,7 C 19,8 C 1,9 km/h 100,00 %
15.06.2019 21:50 19,9 C 67 % 1015,2 hPa 0,0 l/m 0,0 km/h W-NW 292 0 min 0,000 mm 0,0 UV-I 7 W/m 13,6 C 19,9 C 1,9 km/h 100,00 %
15.06.2019 21:45 20,1 C 67 % 1015,2 hPa 0,0 l/m 0,0 km/h W-NW 292 0 min 0,000 mm 0,0 UV-I 7 W/m 13,8 C 20,1 C 3,8 km/h 99,12 %
15.06.2019 21:40 20,2 C 66 % 1015,1 hPa 0,0 l/m 0,0 km/h W-NW 292 0 min 0,000 mm 0,0 UV-I 11 W/m 13,6 C 20,2 C 5,7 km/h 99,12 %
15.06.2019 21:35 20,3 C 66 % 1015,1 hPa 0,0 l/m 0,0 km/h W-NW 292 0 min 0,000 mm 0,0 UV-I 11 W/m 13,7 C 20,3 C 3,8 km/h 100,00 %
15.06.2019 21:30 20,4 C 66 % 1015,0 hPa 0,0 l/m 0,0 km/h W-NW 292 0 min 0,000 mm 0,0 UV-I 12 W/m 13,8 C 20,4 C 5,7 km/h 100,00 %
15.06.2019 21:25 20,6 C 65 % 1015,1 hPa 0,0 l/m 3,8 km/h W-NW 292 0 min 0,000 mm 0,0 UV-I 14 W/m 13,8 C 20,6 C 7,7 km/h 99,12 %
15.06.2019 21:20 20,8 C 66 % 1015,0 hPa 0,0 l/m 0,0 km/h SW 225 0 min 0,000 mm 0,0 UV-I 14 W/m 14,2 C 20,8 C 3,8 km/h 99,12 %
15.06.2019 21:15 20,9 C 65 % 1015,0 hPa 0,0 l/m 0,0 km/h SW 225 0 min 0,000 mm 0,0 UV-I 21 W/m 14,1 C 20,9 C 1,9 km/h 100,00 %
15.06.2019 21:10 21,1 C 65 % 1014,9 hPa 0,0 l/m 0,0 km/h SW 225 0 min 0,000 mm 0,0 UV-I 32 W/m 14,3 C 21,1 C 1,9 km/h 100,00 %
15.06.2019 21:05 21,2 C 63 % 1014,9 hPa 0,0 l/m 0,0 km/h SW 225 0 min 0,000 mm 0,0 UV-I 37 W/m 13,9 C 21,2 C 1,9 km/h 100,00 %
15.06.2019 21:00 21,2 C 62 % 1014,9 hPa 0,0 l/m 0,0 km/h SW 225 0 min 0,051 mm 0,0 UV-I 40 W/m 13,6 C 21,2 C 3,8 km/h 100,00 %
_ Min-Zeit 04:45 18:39 21:00 - 21:00 - - - - - - 15:01 04:45 00:00 17:14
Minimum _ 13,7 C 52 % 1014,9 hPa - 0,0 km/h - - - - - - 12,5 C 13,7 C 0,0 km/h 83,33 %
_ Max-Zeit 17:23 05:05 15:33 21:00 15:15 - - 07:55 15:00 12:56 12:05 12:47 17:21 15:23 21:00
Maximum _ 23,5 C 94 % 1020,4 hPa 0,0 l/m 21,4 km/h
SW
- - 5 min 0,534 mm 6,2 UV-I 1153 W/m 14,7 C 23,4 C 32,5 km/h
W-SW
100,00 %
Durchschnitt _ 19,1 C 72 % 1018,2 hPa #0,0 l/m 5,1 km/h SW - #10:27 h #4,521 mm 2,9 UV-I 470 W/m 13,6 C 18,6 C 10,6 km/h 99,08 %